M I D A S
Marine Information and Data Acquisition System
Tripno 1593 of the Zeeleeuw from 2008-10-22 06:58:39 to 2008-10-22 11:53:53
Back to CruiseResearch ActivitiesStationsMapUnderway DataData graphs

EquipmentUnitsComment
TimeDGPSUTC
LatitudeDGPSDM.mWGS84
LongitudeDGPSDM.mWGS84
TemperatureSBE03/SBE38deg celciusITS90
ConductivitySBE21S/mITS90
SalinitySBE21 Practical Salinity Units
ChlorophylAChelsea fluorimeterg/lCalibrated in Aceton
Missing or incorrect values are displayed as -999
Sea surface data collected by the RV Zeeleeuw from 2008-10-22 06:54:10 to 2008-10-22 11:56:52
                                                                                    Next 1000 lines
Time Latitude Longitude Temperature Conductivity Salinity ChlorophylA
2008-10-22 06:54:20 51°13.622 2°56.044 19.0721 0.130919 0.707776 -1.522929
2008-10-22 06:54:25 51°13.623 2°56.041 19.0124 0.130919 0.707789 -1.522929
2008-10-22 06:54:30 51°13.624 2°56.037 19.0888 0.130919 0.707789 -1.488105
2008-10-22 06:54:35 51°13.625 2°56.032 19.0805 0.130919 0.707801 -1.488105
2008-10-22 06:54:40 51°13.627 2°56.027 19.0947 0.130919 0.707801 -1.488105
2008-10-22 06:54:45 51°13.629 2°56.021 19.0969 0.130919 0.707813 -1.522929
2008-10-22 06:54:50 51°13.631 2°56.014 19.1104 0.130919 0.707825 -1.522929
2008-10-22 06:54:55 51°13.633 2°56.007 19.1288 0.130919 0.707825 -1.488105
2008-10-22 06:55:00 51°13.635 2°56 19.1914 0.130919 0.707861 -1.522929
2008-10-22 06:55:05 51°13.638 2°55.992 19.1747 0.130919 0.707861 -1.522929
2008-10-22 06:55:10 51°13.64 2°55.983 19.2041 0.130919 0.707861 -1.522929
2008-10-22 06:55:15 51°13.642 2°55.975 19.1642 0.130919 0.707886 -1.522929
2008-10-22 06:55:20 51°13.644 2°55.967 19.1865 0.130919 0.707898 -1.522929
2008-10-22 06:55:25 51°13.647 2°55.958 19.1799 0.130919 0.70791 -1.522929
2008-10-22 06:55:30 51°13.649 2°55.949 19.1908 0.130919 0.707934 -1.488105
2008-10-22 06:55:35 51°13.652 2°55.939 19.1855 0.130919 0.707959 -1.488105
2008-10-22 06:55:40 51°13.654 2°55.93 19.2467 0.130919 0.707959 -1.488105
2008-10-22 06:55:45 51°13.657 2°55.92 19.2435 0.130919 0.707983 -1.522929
2008-10-22 06:55:50 51°13.66 2°55.911 19.2669 0.130919 0.708007 -1.488105
2008-10-22 06:55:55 51°13.662 2°55.901 19.2449 0.130919 0.708019 -1.522929
2008-10-22 06:56:00 51°13.665 2°55.891 19.2385 0.130919 0.708031 -1.522929
2008-10-22 06:56:05 51°13.668 2°55.882 19.2053 0.130919 0.708031 -1.522929
2008-10-22 06:56:10 51°13.671 2°55.872 19.256 0.130919 0.708031 -1.522929
2008-10-22 06:56:15 51°13.674 2°55.863 19.2634 0.130919 0.708044 -1.522929
2008-10-22 06:56:20 51°13.676 2°55.855 19.2831 0.130919 0.708044 -1.522929
2008-10-22 06:56:25 51°13.679 2°55.847 19.2502 0.130919 0.708068 -1.522929
2008-10-22 06:56:30 51°13.681 2°55.839 19.2415 0.130919 0.70808 -1.488105
2008-10-22 06:56:35 51°13.683 2°55.831 19.2428 0.130919 0.708092 -1.522929
2008-10-22 06:56:40 51°13.685 2°55.823 19.2428 0.130919 0.708092 -1.522929
2008-10-22 06:56:45 51°13.687 2°55.815 19.2297 0.130919 0.708104 -1.522929
2008-10-22 06:56:50 51°13.689 2°55.808 19.2334 0.130919 0.708129 -1.488105
2008-10-22 06:56:55 51°13.69 2°55.801 19.2411 0.130919 0.708141 -1.522929
2008-10-22 06:57:00 51°13.691 2°55.793 19.2456 0.130919 0.708165 -1.488105
2008-10-22 06:57:05 51°13.692 2°55.786 19.2158 0.130919 0.708177 -1.522929
2008-10-22 06:57:10 51°13.693 2°55.779 19.2311 0.130919 0.708177 -1.522929
2008-10-22 06:57:15 51°13.694 2°55.773 19.2099 0.130919 0.708189 -1.522929
2008-10-22 06:57:20 51°13.695 2°55.767 19.2274 0.130919 0.708202 -1.488105
2008-10-22 06:57:25 51°13.695 2°55.761 19.192 0.130919 0.708202 -1.522929
2008-10-22 06:57:30 51°13.695 2°55.755 19.2659 0.130919 0.708202 -1.488105
2008-10-22 06:57:35 51°13.695 2°55.749 19.1813 0.130919 0.708214 -1.522929
2008-10-22 06:57:40 51°13.695 2°55.744 19.2115 0.130919 0.708214 -1.522929
2008-10-22 06:57:45 51°13.695 2°55.74 19.2299 0.130919 0.708226 -1.522929
2008-10-22 06:57:50 51°13.695 2°55.736 19.1919 0.130919 0.708226 -1.488105
2008-10-22 06:57:55 51°13.695 2°55.732 19.2225 0.130919 0.708238 -1.522929
2008-10-22 06:58:00 51°13.695 2°55.73 19.2573 0.130919 0.70825 -1.488105
2008-10-22 06:58:05 51°13.695 2°55.728 19.23 0.130919 0.708275 -1.488105
2008-10-22 06:58:10 51°13.695 2°55.727 19.2709 0.130919 0.708275 -1.488105
2008-10-22 06:58:15 51°13.695 2°55.726 19.2453 0.130919 0.708287 -1.522929
2008-10-22 06:58:20 51°13.695 2°55.726 19.2498 0.130919 0.708311 -1.522929
2008-10-22 06:58:25 51°13.696 2°55.726 19.2509 0.130919 0.708323 -1.522929
2008-10-22 06:58:30 51°13.696 2°55.727 19.261 0.130919 0.708335 -1.522929
2008-10-22 06:58:35 51°13.697 2°55.728 19.2228 0.130919 0.708384 -1.522929
2008-10-22 06:58:40 51°13.699 2°55.729 19.2406 0.130919 0.708384 -1.522929
2008-10-22 06:58:45 51°13.7 2°55.731 19.2552 0.130919 0.70853 -1.522929
2008-10-22 06:58:50 51°13.702 2°55.732 19.2609 0.130919 0.708664 -1.522929
2008-10-22 06:58:55 51°13.704 2°55.733 19.3264 0.130919 0.708725 -1.522929
2008-10-22 06:59:00 51°13.707 2°55.734 19.3332 0.130919 0.7087 -1.522929
2008-10-22 06:59:05 51°13.711 2°55.735 19.3488 0.130919 0.708627 -1.522929
2008-10-22 06:59:10 51°13.715 2°55.735 19.3552 0.130919 0.708627 -1.522929
2008-10-22 06:59:15 51°13.72 2°55.734 19.3511 0.130919 0.708518 -1.522929
2008-10-22 06:59:20 51°13.725 2°55.731 19.3549 0.130919 0.708396 -1.488105
2008-10-22 06:59:25 51°13.731 2°55.727 19.3379 0.130919 0.708287 -1.488105
2008-10-22 06:59:30 51°13.737 2°55.722 19.2762 0.130919 0.708238 -1.488105
2008-10-22 06:59:35 51°13.744 2°55.716 19.2029 0.130919 0.708214 -1.488105
2008-10-22 06:59:40 51°13.751 2°55.709 19.1643 0.130919 0.708214 -1.488105
2008-10-22 06:59:45 51°13.758 2°55.703 19.1581 0.130919 0.708238 -1.488105
2008-10-22 06:59:50 51°13.766 2°55.695 19.1042 0.130919 0.708287 -1.522929
2008-10-22 06:59:55 51°13.774 2°55.688 19.1148 0.130919 0.708372 -1.488105
2008-10-22 07:00:00 51°13.782 2°55.68 19.1237 0.130919 0.708469 -1.522929
2008-10-22 07:00:05 51°13.791 2°55.672 19.1314 0.130919 0.708542 -1.522929
2008-10-22 07:00:10 51°13.8 2°55.665 19.1074 0.130919 0.708542 -1.522929
2008-10-22 07:00:15 51°13.809 2°55.657 19.0852 0.130919 0.708603 -1.522929
2008-10-22 07:00:20 51°13.819 2°55.649 19.097 0.130919 0.70864 -1.522929
2008-10-22 07:00:25 51°13.828 2°55.641 19.1071 0.130919 0.70864 -1.522929
2008-10-22 07:00:30 51°13.838 2°55.633 19.1307 0.130919 0.70864 -1.488105
2008-10-22 07:00:35 51°13.848 2°55.625 19.1681 0.130919 0.708627 -1.488105
2008-10-22 07:00:40 51°13.858 2°55.617 19.174 0.130919 0.708627 -1.488105
2008-10-22 07:00:45 51°13.868 2°55.608 19.1093 0.130919 0.708627 -1.522929
2008-10-22 07:00:50 51°13.879 2°55.6 19.1375 0.130816 0.708021 -1.488105
2008-10-22 07:00:55 51°13.889 2°55.592 19.1855 0.130919 0.708615 -1.488105
2008-10-22 07:01:00 51°13.899 2°55.584 19.1782 0.130816 0.708046 -1.522929
2008-10-22 07:01:05 51°13.91 2°55.575 19.1971 0.130816 0.70807 -1.522929
2008-10-22 07:01:10 51°13.92 2°55.567 19.1883 0.130816 0.70807 -1.522929
2008-10-22 07:01:15 51°13.931 2°55.559 19.1679 0.130816 0.708094 -1.522929
2008-10-22 07:01:20 51°13.941 2°55.551 19.1907 0.130816 0.708131 -1.488105
2008-10-22 07:01:25 51°13.952 2°55.542 19.0985 0.130816 0.708155 -1.522929
2008-10-22 07:01:30 51°13.962 2°55.533 19.1484 0.130816 0.708179 -1.488105
2008-10-22 07:01:35 51°13.973 2°55.525 19.1487 0.130919 0.708773 -1.522929
2008-10-22 07:01:40 51°13.983 2°55.517 19.1759 0.130919 0.708773 -1.522929
2008-10-22 07:01:45 51°13.993 2°55.508 19.1635 0.130816 0.708216 -1.522929
2008-10-22 07:01:50 51°14.004 2°55.5 19.1248 0.130816 0.708204 -1.488105
2008-10-22 07:01:55 51°14.015 2°55.492 19.1626 0.130816 0.708204 -1.522929
2008-10-22 07:02:00 51°14.025 2°55.484 19.1707 0.130816 0.708216 -1.488105
2008-10-22 07:02:05 51°14.036 2°55.476 19.1377 0.130816 0.708216 -1.488105
2008-10-22 07:02:10 51°14.047 2°55.468 19.1587 0.130816 0.708216 -1.488105
2008-10-22 07:02:15 51°14.057 2°55.461 19.1828 0.130816 0.708228 -1.522929
2008-10-22 07:02:20 51°14.068 2°55.453 19.2332 0.130816 0.708252 -1.488105
2008-10-22 07:02:25 51°14.079 2°55.445 19.1352 0.130816 0.708277 -1.488105
2008-10-22 07:02:30 51°14.089 2°55.437 19.1447 0.130816 0.708289 -1.488105
2008-10-22 07:02:35 51°14.1 2°55.428 19.1874 0.130816 0.708301 -1.488105
2008-10-22 07:02:40 51°14.11 2°55.42 19.1994 0.130816 0.708301 -1.488105
2008-10-22 07:02:45 51°14.121 2°55.411 19.1715 0.130816 0.708313 -1.488105
2008-10-22 07:02:50 51°14.131 2°55.402 19.166 0.130816 0.708325 -1.488105
2008-10-22 07:02:55 51°14.142 2°55.393 19.1841 0.130816 0.708338 -1.488105
2008-10-22 07:03:00 51°14.152 2°55.383 19.1425 0.130816 0.708362 -1.488105
2008-10-22 07:03:05 51°14.162 2°55.374 19.1939 0.130816 0.708374 -1.488105
2008-10-22 07:03:10 51°14.172 2°55.363 19.1462 0.130816 0.708374 -1.488105
2008-10-22 07:03:15 51°14.182 2°55.353 19.1909 0.130816 0.708386 -1.522929
2008-10-22 07:03:20 51°14.192 2°55.342 19.177 0.130816 0.708411 -1.522929
2008-10-22 07:03:25 51°14.202 2°55.332 19.2004 0.130816 0.708423 -1.488105
2008-10-22 07:03:30 51°14.213 2°55.32 19.2269 0.130816 0.708447 -1.488105
2008-10-22 07:03:35 51°14.223 2°55.307 19.2128 0.130816 0.708459 -1.488105
2008-10-22 07:03:40 51°14.232 2°55.293 19.1164 0.130816 0.708459 -1.488105
2008-10-22 07:03:45 51°14.242 2°55.28 19.1736 0.130816 0.708472 -1.522929
2008-10-22 07:03:50 51°14.252 2°55.265 19.137 0.130816 0.708484 -1.522929
2008-10-22 07:03:55 51°14.261 2°55.249 19.0753 0.130816 0.708496 -1.522929
2008-10-22 07:04:00 51°14.271 2°55.234 19.1679 0.130816 0.708496 -1.522929
2008-10-22 07:04:05 51°14.28 2°55.218 19.1905 0.130816 0.708508 -1.522929
2008-10-22 07:04:10 51°14.289 2°55.201 19.1161 0.130816 0.708508 -1.522929
2008-10-22 07:04:15 51°14.298 2°55.183 19.1226 0.130816 0.70852 -1.488105
2008-10-22 07:04:20 51°14.307 2°55.166 19.0705 0.130816 0.708532 -1.488105
2008-10-22 07:04:25 51°14.315 2°55.148 19.0778 0.130816 0.708545 -1.488105
2008-10-22 07:04:30 51°14.323 2°55.129 19.0764 0.130816 0.708557 -1.488105
2008-10-22 07:04:35 51°14.331 2°55.111 19.0661 0.130816 0.708569 -1.488105
2008-10-22 07:04:40 51°14.339 2°55.092 19.0354 0.130816 0.708569 -1.488105
2008-10-22 07:04:45 51°14.347 2°55.073 19.1141 0.130816 0.708581 -1.522929
2008-10-22 07:04:50 51°14.354 2°55.054 19.0037 0.130816 0.708569 -1.488105
2008-10-22 07:04:55 51°14.361 2°55.034 19.1269 0.130816 0.708593 -1.488105
2008-10-22 07:05:00 51°14.368 2°55.015 18.9891 0.130816 0.708593 -1.488105
2008-10-22 07:05:05 51°14.376 2°54.995 19.0037 0.130816 0.708606 -1.488105
2008-10-22 07:05:10 51°14.384 2°54.976 18.975 0.130816 0.708606 -1.488105
2008-10-22 07:05:15 51°14.392 2°54.957 19.0604 0.130816 0.708606 -1.522929
2008-10-22 07:05:20 51°14.401 2°54.937 19.0479 0.130816 0.708618 -1.488105
2008-10-22 07:05:25 51°14.41 2°54.917 19.102 0.130816 0.708642 -1.522929
2008-10-22 07:05:30 51°14.418 2°54.897 18.8951 0.130816 0.708654 -1.488105
2008-10-22 07:05:35 51°14.427 2°54.876 19.0122 0.130816 0.708666 -1.488105
2008-10-22 07:05:40 51°14.436 2°54.854 18.9576 0.130816 0.708666 -1.488105
2008-10-22 07:05:45 51°14.444 2°54.833 19.0195 0.130816 0.708679 -1.522929
2008-10-22 07:05:50 51°14.453 2°54.812 19.0354 0.130816 0.708679 -1.488105
2008-10-22 07:05:55 51°14.461 2°54.789 18.9991 0.130816 0.708691 -1.488105
2008-10-22 07:06:00 51°14.469 2°54.767 18.9506 0.130816 0.708703 -1.522929
2008-10-22 07:06:05 51°14.477 2°54.745 18.9131 0.130816 0.708715 -1.488105
2008-10-22 07:06:10 51°14.485 2°54.722 18.8528 0.130816 0.708715 -1.488105
2008-10-22 07:06:15 51°14.494 2°54.7 18.9976 0.130816 0.708727 -1.488105
2008-10-22 07:06:20 51°14.502 2°54.677 18.9076 0.130816 0.708752 -1.522929
2008-10-22 07:06:25 51°14.51 2°54.655 18.9947 0.130816 0.708764 -1.488105
2008-10-22 07:06:30 51°14.518 2°54.632 18.9808 0.130816 0.708776 -1.522929
2008-10-22 07:06:35 51°14.526 2°54.61 18.9708 0.130816 0.708801 -1.522929
2008-10-22 07:06:40 51°14.535 2°54.587 18.9557 0.130816 0.708801 -1.522929
2008-10-22 07:06:45 51°14.543 2°54.565 18.9191 0.130816 0.708801 -1.488105
2008-10-22 07:06:50 51°14.551 2°54.542 18.9918 0.130816 0.708813 -1.522929
2008-10-22 07:06:55 51°14.559 2°54.519 18.9159 0.130816 0.708837 -1.488105
2008-10-22 07:07:00 51°14.566 2°54.496 18.9957 0.130816 0.708837 -1.488105
2008-10-22 07:07:05 51°14.574 2°54.473 18.9932 0.130816 0.708849 -1.488105
2008-10-22 07:07:10 51°14.581 2°54.45 18.9597 0.130816 0.708849 -1.488105
2008-10-22 07:07:15 51°14.589 2°54.427 19.0005 0.130816 0.708849 -1.488105
2008-10-22 07:07:20 51°14.595 2°54.404 18.8946 0.130816 0.708862 -1.488105
2008-10-22 07:07:25 51°14.602 2°54.381 18.8817 0.130816 0.708874 -1.522929
2008-10-22 07:07:30 51°14.608 2°54.357 18.9449 0.130816 0.708886 -1.522929
2008-10-22 07:07:35 51°14.615 2°54.333 18.9597 0.130816 0.708886 -1.522929
2008-10-22 07:07:40 51°14.62 2°54.309 18.9531 0.130816 0.708886 -1.522929
2008-10-22 07:07:45 51°14.626 2°54.285 18.9959 0.130816 0.708898 -1.488105
2008-10-22 07:07:50 51°14.631 2°54.26 18.9647 0.130816 0.708898 -1.488105
2008-10-22 07:07:55 51°14.636 2°54.236 18.9285 0.130816 0.70891 -1.522929
2008-10-22 07:08:00 51°14.641 2°54.212 18.9767 0.130816 0.708923 -1.522929
2008-10-22 07:08:05 51°14.646 2°54.187 18.9829 0.130816 0.708935 -1.488105
2008-10-22 07:08:10 51°14.651 2°54.163 18.9991 0.130816 0.708935 -1.488105
2008-10-22 07:08:15 51°14.656 2°54.138 18.9286 0.130816 0.708935 -1.488105
2008-10-22 07:08:20 51°14.66 2°54.114 18.9062 0.130816 0.708947 -1.488105
2008-10-22 07:08:25 51°14.664 2°54.089 18.948 0.130816 0.708959 -1.488105
2008-10-22 07:08:30 51°14.668 2°54.064 18.9481 0.130816 0.708971 -1.488105
2008-10-22 07:08:35 51°14.673 2°54.04 18.9691 0.130816 0.708971 -1.488105
2008-10-22 07:08:40 51°14.676 2°54.015 18.9438 0.130816 0.708971 -1.488105
2008-10-22 07:08:45 51°14.68 2°53.991 18.9644 0.130816 0.708984 -1.488105
2008-10-22 07:08:50 51°14.684 2°53.966 18.9396 0.130816 0.708996 -1.488105
2008-10-22 07:08:55 51°14.688 2°53.941 18.9458 0.130816 0.708996 -1.522929
2008-10-22 07:09:00 51°14.692 2°53.917 18.9404 0.130816 0.709008 -1.488105
2008-10-22 07:09:05 51°14.696 2°53.892 18.9713 0.130816 0.70902 -1.488105
2008-10-22 07:09:10 51°14.699 2°53.867 18.9382 0.130816 0.70902 -1.488105
2008-10-22 07:09:15 51°14.703 2°53.842 18.9401 0.130816 0.70902 -1.488105
2008-10-22 07:09:20 51°14.707 2°53.818 18.9171 0.130816 0.709032 -1.488105
2008-10-22 07:09:25 51°14.711 2°53.793 18.948 0.130816 0.709045 -1.488105
2008-10-22 07:09:30 51°14.714 2°53.768 18.9276 0.130816 0.709057 -1.488105
2008-10-22 07:09:35 51°14.718 2°53.743 18.9809 0.130816 0.709069 -1.488105
2008-10-22 07:09:40 51°14.722 2°53.718 18.943 0.130816 0.709069 -1.488105
2008-10-22 07:09:45 51°14.725 2°53.693 18.966 0.130816 0.709069 -1.488105
2008-10-22 07:09:50 51°14.729 2°53.668 18.9727 0.130816 0.709093 -1.488105
2008-10-22 07:09:55 51°14.733 2°53.643 18.9032 0.130816 0.709106 -1.488105
2008-10-22 07:10:00 51°14.736 2°53.618 18.9124 0.130816 0.709118 -1.488105
2008-10-22 07:10:05 51°14.74 2°53.593 18.8573 0.130816 0.709118 -1.522929
2008-10-22 07:10:10 51°14.744 2°53.568 18.9113 0.130816 0.709118 -1.522929
2008-10-22 07:10:15 51°14.747 2°53.542 18.8964 0.130713 0.708547 -1.488105
2008-10-22 07:10:20 51°14.751 2°53.517 18.9078 0.130713 0.708547 -1.488105
2008-10-22 07:10:25 51°14.755 2°53.492 18.9441 0.130713 0.708572 -1.488105
2008-10-22 07:10:30 51°14.759 2°53.467 18.9243 0.130713 0.708572 -1.488105
2008-10-22 07:10:35 51°14.762 2°53.442 18.8727 0.130713 0.708584 -1.488105
2008-10-22 07:10:40 51°14.766 2°53.417 18.9792 0.130713 0.708584 -1.488105
2008-10-22 07:10:45 51°14.769 2°53.392 18.9269 0.130713 0.708596 -1.488105
2008-10-22 07:10:50 51°14.773 2°53.367 18.9516 0.130713 0.708608 -1.488105
2008-10-22 07:10:55 51°14.777 2°53.342 18.8959 0.130713 0.70862 -1.488105
2008-10-22 07:11:00 51°14.78 2°53.316 18.9077 0.130713 0.708633 -1.488105
2008-10-22 07:11:05 51°14.784 2°53.291 18.9178 0.130713 0.708657 -1.488105
2008-10-22 07:11:10 51°14.787 2°53.266 18.907 0.130713 0.708657 -1.488105
2008-10-22 07:11:15 51°14.791 2°53.241 18.9552 0.130713 0.708657 -1.522929
2008-10-22 07:11:20 51°14.794 2°53.215 18.881 0.130713 0.708681 -1.488105
2008-10-22 07:11:25 51°14.798 2°53.19 18.9134 0.130713 0.708681 -1.488105
2008-10-22 07:11:30 51°14.801 2°53.165 18.8971 0.130713 0.708694 -1.488105
2008-10-22 07:11:35 51°14.805 2°53.14 18.9324 0.130713 0.708706 -1.488105
2008-10-22 07:11:40 51°14.808 2°53.114 18.9543 0.130713 0.708706 -1.488105
2008-10-22 07:11:45 51°14.812 2°53.089 18.9481 0.130713 0.708718 -1.488105
2008-10-22 07:11:50 51°14.816 2°53.064 18.8906 0.130713 0.70873 -1.488105
2008-10-22 07:11:55 51°14.82 2°53.039 18.9453 0.130713 0.708742 -1.488105
2008-10-22 07:12:00 51°14.823 2°53.014 18.928 0.130713 0.708755 -1.488105
2008-10-22 07:12:05 51°14.827 2°52.989 18.9206 0.130713 0.708767 -1.488105
2008-10-22 07:12:10 51°14.831 2°52.965 18.9043 0.130713 0.708767 -1.488105
2008-10-22 07:12:15 51°14.835 2°52.94 18.9337 0.130713 0.708779 -1.488105
2008-10-22 07:12:20 51°14.838 2°52.915 18.9703 0.130713 0.708803 -1.488105
2008-10-22 07:12:25 51°14.841 2°52.89 18.9163 0.130713 0.708816 -1.522929
2008-10-22 07:12:30 51°14.845 2°52.865 18.9184 0.130713 0.708828 -1.488105
2008-10-22 07:12:35 51°14.847 2°52.84 18.8759 0.130713 0.70884 -1.488105
2008-10-22 07:12:40 51°14.85 2°52.815 18.9626 0.130713 0.70884 -1.488105
2008-10-22 07:12:45 51°14.853 2°52.79 18.9453 0.130713 0.708852 -1.488105
2008-10-22 07:12:50 51°14.856 2°52.765 18.9317 0.130713 0.708865 -1.488105
2008-10-22 07:12:55 51°14.859 2°52.74 18.8294 0.130713 0.708877 -1.488105
2008-10-22 07:13:00 51°14.861 2°52.715 18.8419 0.130713 0.708901 -1.488105
2008-10-22 07:13:05 51°14.864 2°52.69 18.8922 0.130713 0.708901 -1.488105
2008-10-22 07:13:10 51°14.867 2°52.665 18.9019 0.130713 0.708901 -1.488105
2008-10-22 07:13:15 51°14.87 2°52.641 18.8671 0.130713 0.708913 -1.488105
2008-10-22 07:13:20 51°14.873 2°52.616 18.9054 0.130713 0.708938 -1.488105
2008-10-22 07:13:25 51°14.876 2°52.591 18.9318 0.130713 0.70895 -1.488105
2008-10-22 07:13:30 51°14.879 2°52.566 18.8899 0.130713 0.708974 -1.488105
2008-10-22 07:13:35 51°14.882 2°52.541 18.9248 0.130713 0.708974 -1.488105
2008-10-22 07:13:40 51°14.885 2°52.517 18.9188 0.130713 0.708974 -1.488105
2008-10-22 07:13:45 51°14.888 2°52.492 18.8916 0.130713 0.708987 -1.488105
2008-10-22 07:13:50 51°14.891 2°52.467 18.9093 0.130713 0.709011 -1.488105
2008-10-22 07:13:55 51°14.894 2°52.442 18.8773 0.130713 0.709023 -1.488105
2008-10-22 07:14:00 51°14.897 2°52.417 18.894 0.130713 0.709035 -1.488105
2008-10-22 07:14:05 51°14.9 2°52.392 18.9087 0.130713 0.709048 -1.488105
2008-10-22 07:14:10 51°14.903 2°52.368 18.9396 0.130713 0.709048 -1.488105
2008-10-22 07:14:15 51°14.906 2°52.343 18.8536 0.130713 0.70906 -1.488105
2008-10-22 07:14:20 51°14.91 2°52.318 18.8132 0.130713 0.70906 -1.488105
2008-10-22 07:14:25 51°14.912 2°52.294 18.8264 0.130713 0.709072 -1.488105
2008-10-22 07:14:30 51°14.916 2°52.269 18.9063 0.130713 0.709084 -1.488105
2008-10-22 07:14:35 51°14.919 2°52.244 18.8216 0.130713 0.709097 -1.488105
2008-10-22 07:14:40 51°14.922 2°52.22 18.8959 0.130713 0.709097 -1.488105
2008-10-22 07:14:45 51°14.925 2°52.195 18.8543 0.130713 0.709109 -1.488105
2008-10-22 07:14:50 51°14.928 2°52.17 18.902 0.130713 0.709121 -1.488105
2008-10-22 07:14:55 51°14.931 2°52.145 18.8709 0.130713 0.709133 -1.488105
2008-10-22 07:15:00 51°14.935 2°52.121 18.9139 0.130713 0.709145 -1.488105
2008-10-22 07:15:05 51°14.938 2°52.096 18.8559 0.130713 0.709158 -1.488105
2008-10-22 07:15:10 51°14.941 2°52.071 18.8993 0.130713 0.709158 -1.488105
2008-10-22 07:15:15 51°14.944 2°52.046 18.8965 0.130713 0.70917 -1.488105
2008-10-22 07:15:20 51°14.948 2°52.022 18.8387 0.130713 0.709194 -1.488105
2008-10-22 07:15:25 51°14.951 2°51.997 18.8895 0.130713 0.709194 -1.488105
2008-10-22 07:15:30 51°14.954 2°51.972 18.8949 0.130713 0.709207 -1.488105
2008-10-22 07:15:35 51°14.957 2°51.947 18.8901 0.130713 0.709219 -1.488105
2008-10-22 07:15:40 51°14.961 2°51.923 18.8968 0.130713 0.709219 -1.488105
2008-10-22 07:15:45 51°14.964 2°51.898 18.8826 0.130713 0.709219 -1.488105
2008-10-22 07:15:50 51°14.967 2°51.873 18.8738 0.130713 0.709243 -1.488105
2008-10-22 07:15:55 51°14.971 2°51.849 18.894 0.130713 0.709255 -1.488105
2008-10-22 07:16:00 51°14.974 2°51.824 18.8935 0.130713 0.709255 -1.488105
2008-10-22 07:16:05 51°14.978 2°51.799 18.8905 0.130713 0.70928 -1.488105
2008-10-22 07:16:10 51°14.981 2°51.775 18.8898 0.130713 0.70928 -1.488105
2008-10-22 07:16:15 51°14.985 2°51.75 18.8919 0.130713 0.709292 -1.488105
2008-10-22 07:16:20 51°14.988 2°51.725 18.8918 0.130713 0.709304 -1.488105
2008-10-22 07:16:25 51°14.992 2°51.701 18.8582 0.130713 0.709304 -1.488105
2008-10-22 07:16:30 51°14.996 2°51.676 18.8198 0.130713 0.709329 -1.488105
2008-10-22 07:16:35 51°15 2°51.652 18.9044 0.130713 0.709329 -1.488105
2008-10-22 07:16:40 51°15.004 2°51.627 18.8532 0.130713 0.709329 -1.488105
2008-10-22 07:16:45 51°15.008 2°51.603 18.8848 0.130713 0.709353 -1.488105
2008-10-22 07:16:50 51°15.012 2°51.578 18.8555 0.130713 0.709353 -1.488105
2008-10-22 07:16:55 51°15.017 2°51.554 18.8919 0.130713 0.709365 -1.488105
2008-10-22 07:17:00 51°15.021 2°51.53 18.8758 0.130713 0.709378 -1.488105
2008-10-22 07:17:05 51°15.025 2°51.505 18.8673 0.130713 0.70939 -1.488105
2008-10-22 07:17:10 51°15.03 2°51.481 18.8513 0.130713 0.70939 -1.488105
2008-10-22 07:17:15 51°15.034 2°51.456 18.8763 0.130713 0.70939 -1.488105
2008-10-22 07:17:20 51°15.038 2°51.432 18.8571 0.130713 0.709402 -1.488105
2008-10-22 07:17:25 51°15.042 2°51.408 18.9035 0.130713 0.709402 -1.488105
2008-10-22 07:17:30 51°15.047 2°51.383 18.8925 0.130713 0.709427 -1.488105
2008-10-22 07:17:35 51°15.051 2°51.359 18.8609 0.130713 0.709427 -1.488105
2008-10-22 07:17:40 51°15.055 2°51.334 18.8088 0.130713 0.709427 -1.488105
2008-10-22 07:17:45 51°15.06 2°51.31 18.8914 0.130713 0.709439 -1.488105
2008-10-22 07:17:50 51°15.064 2°51.285 18.8806 0.130713 0.709439 -1.488105
2008-10-22 07:17:55 51°15.068 2°51.261 18.9063 0.130713 0.709451 -1.488105
2008-10-22 07:18:00 51°15.072 2°51.236 18.9084 0.130713 0.709463 -1.488105
2008-10-22 07:18:05 51°15.076 2°51.212 18.8715 0.130713 0.709476 -1.488105
2008-10-22 07:18:10 51°15.08 2°51.187 18.9076 0.130713 0.709476 -1.488105
2008-10-22 07:18:15 51°15.084 2°51.162 18.9183 0.130713 0.709488 -1.488105
2008-10-22 07:18:20 51°15.088 2°51.138 18.8167 0.130713 0.7095 -1.488105
2008-10-22 07:18:25 51°15.092 2°51.113 18.8456 0.130713 0.709488 -1.488105
2008-10-22 07:18:30 51°15.096 2°51.089 18.8862 0.130713 0.7095 -1.488105
2008-10-22 07:18:35 51°15.1 2°51.064 18.9015 0.130713 0.7095 -1.488105
2008-10-22 07:18:40 51°15.104 2°51.039 18.8575 0.130713 0.7095 -1.488105
2008-10-22 07:18:45 51°15.108 2°51.015 18.8731 0.130713 0.709512 -1.488105
2008-10-22 07:18:50 51°15.112 2°50.99 18.8663 0.130713 0.709512 -1.488105
2008-10-22 07:18:55 51°15.116 2°50.966 18.8401 0.13061 0.708941 -1.488105
2008-10-22 07:19:00 51°15.12 2°50.941 18.8575 0.130713 0.709537 -1.488105
2008-10-22 07:19:05 51°15.124 2°50.916 18.8873 0.130713 0.709549 -1.488105
2008-10-22 07:19:10 51°15.128 2°50.892 18.8864 0.130713 0.709549 -1.488105
2008-10-22 07:19:15 51°15.132 2°50.867 18.9118 0.13061 0.708965 -1.488105
2008-10-22 07:19:20 51°15.136 2°50.843 18.8703 0.13061 0.708978 -1.488105
2008-10-22 07:19:25 51°15.14 2°50.818 18.9042 0.13061 0.70899 -1.488105
2008-10-22 07:19:30 51°15.144 2°50.793 18.907 0.13061 0.709002 -1.488105
2008-10-22 07:19:35 51°15.149 2°50.769 18.9107 0.13061 0.709002 -1.488105
2008-10-22 07:19:40 51°15.153 2°50.744 18.8987 0.13061 0.709002 -1.488105
2008-10-22 07:19:45 51°15.157 2°50.72 18.8416 0.13061 0.709014 -1.488105
2008-10-22 07:19:50 51°15.161 2°50.695 18.8976 0.13061 0.709027 -1.488105
2008-10-22 07:19:55 51°15.165 2°50.67 18.8577 0.13061 0.709027 -1.488105
2008-10-22 07:20:00 51°15.169 2°50.646 18.8989 0.13061 0.709027 -1.488105
2008-10-22 07:20:05 51°15.173 2°50.621 18.8704 0.13061 0.709039 -1.488105
2008-10-22 07:20:10 51°15.176 2°50.597 18.9066 0.13061 0.709039 -1.488105
2008-10-22 07:20:15 51°15.18 2°50.572 18.8347 0.13061 0.709051 -1.488105
2008-10-22 07:20:20 51°15.183 2°50.547 18.8083 0.13061 0.709051 -1.488105
2008-10-22 07:20:25 51°15.188 2°50.523 18.8838 0.13061 0.709051 -1.488105
2008-10-22 07:20:30 51°15.191 2°50.498 18.8462 0.13061 0.709063 -1.488105
2008-10-22 07:20:35 51°15.195 2°50.473 18.8543 0.13061 0.709063 -1.488105
2008-10-22 07:20:40 51°15.199 2°50.449 18.8889 0.13061 0.709063 -1.488105
2008-10-22 07:20:45 51°15.203 2°50.424 18.8762 0.13061 0.709076 -1.488105
2008-10-22 07:20:50 51°15.207 2°50.399 18.8651 0.13061 0.709088 -1.488105
2008-10-22 07:20:55 51°15.211 2°50.375 18.8957 0.13061 0.709088 -1.488105
2008-10-22 07:21:00 51°15.215 2°50.35 18.8894 0.13061 0.7091 -1.488105
2008-10-22 07:21:05 51°15.219 2°50.325 18.9002 0.13061 0.7091 -1.488105
2008-10-22 07:21:10 51°15.222 2°50.3 18.8654 0.13061 0.7091 -1.488105
2008-10-22 07:21:15 51°15.226 2°50.276 18.8981 0.13061 0.709112 -1.488105
2008-10-22 07:21:20 51°15.23 2°50.251 18.8777 0.13061 0.709112 -1.488105
2008-10-22 07:21:25 51°15.234 2°50.226 18.8833 0.13061 0.709124 -1.488105
2008-10-22 07:21:30 51°15.238 2°50.201 18.8638 0.13061 0.709124 -1.488105
2008-10-22 07:21:35 51°15.241 2°50.177 18.8991 0.13061 0.709137 -1.488105
2008-10-22 07:21:40 51°15.245 2°50.152 18.8786 0.13061 0.709137 -1.488105
2008-10-22 07:21:45 51°15.249 2°50.127 18.8767 0.13061 0.709137 -1.488105
2008-10-22 07:21:50 51°15.253 2°50.102 18.8796 0.13061 0.709149 -1.488105
2008-10-22 07:21:55 51°15.257 2°50.078 18.8943 0.13061 0.709149 -1.488105
2008-10-22 07:22:00 51°15.261 2°50.053 18.857 0.13061 0.709161 -1.488105
2008-10-22 07:22:05 51°15.264 2°50.028 18.8846 0.13061 0.709173 -1.488105
2008-10-22 07:22:10 51°15.268 2°50.003 18.8916 0.13061 0.709173 -1.488105
2008-10-22 07:22:15 51°15.272 2°49.978 18.8723 0.13061 0.709173 -1.488105
2008-10-22 07:22:20 51°15.276 2°49.953 18.8483 0.13061 0.709186 -1.488105
2008-10-22 07:22:25 51°15.28 2°49.929 18.8824 0.13061 0.709186 -1.488105
2008-10-22 07:22:30 51°15.284 2°49.904 18.8739 0.13061 0.709186 -1.488105
2008-10-22 07:22:35 51°15.289 2°49.88 18.8914 0.13061 0.709198 -1.488105
2008-10-22 07:22:40 51°15.294 2°49.855 18.8828 0.13061 0.709198 -1.488105
2008-10-22 07:22:45 51°15.299 2°49.83 18.8539 0.13061 0.709198 -1.488105
2008-10-22 07:22:50 51°15.304 2°49.806 18.8728 0.13061 0.70921 -1.488105
2008-10-22 07:22:55 51°15.309 2°49.782 18.8768 0.13061 0.709222 -1.488105
2008-10-22 07:23:00 51°15.315 2°49.758 18.8986 0.13061 0.709235 -1.488105
2008-10-22 07:23:05 51°15.319 2°49.733 18.8977 0.13061 0.709259 -1.488105
2008-10-22 07:23:10 51°15.324 2°49.709 18.8864 0.13061 0.709259 -1.488105
2008-10-22 07:23:15 51°15.329 2°49.684 18.8511 0.13061 0.709259 -1.488105
2008-10-22 07:23:20 51°15.334 2°49.66 18.9001 0.13061 0.709259 -1.488105
2008-10-22 07:23:25 51°15.339 2°49.635 18.8997 0.13061 0.709271 -1.488105
2008-10-22 07:23:30 51°15.344 2°49.611 18.913 0.13061 0.709283 -1.488105
2008-10-22 07:23:35 51°15.349 2°49.587 18.8723 0.13061 0.709283 -1.488105
2008-10-22 07:23:40 51°15.355 2°49.562 18.9226 0.13061 0.709283 -1.488105
2008-10-22 07:23:45 51°15.36 2°49.538 18.859 0.13061 0.709296 -1.488105
2008-10-22 07:23:50 51°15.365 2°49.514 18.8984 0.13061 0.709308 -1.488105
2008-10-22 07:23:55 51°15.37 2°49.489 18.9105 0.13061 0.709332 -1.488105
2008-10-22 07:24:00 51°15.375 2°49.465 18.907 0.13061 0.709345 -1.488105
2008-10-22 07:24:05 51°15.379 2°49.44 18.9106 0.13061 0.709357 -1.488105
2008-10-22 07:24:10 51°15.384 2°49.416 18.9111 0.13061 0.709357 -1.488105
2008-10-22 07:24:15 51°15.389 2°49.391 18.8848 0.13061 0.709369 -1.488105
2008-10-22 07:24:20 51°15.393 2°49.366 18.8774 0.13061 0.709381 -1.488105
2008-10-22 07:24:25 51°15.398 2°49.342 18.881 0.13061 0.709381 -1.488105
2008-10-22 07:24:30 51°15.402 2°49.317 18.8504 0.13061 0.709394 -1.488105
2008-10-22 07:24:35 51°15.406 2°49.293 18.8889 0.13061 0.709394 -1.488105
2008-10-22 07:24:40 51°15.411 2°49.268 18.8919 0.13061 0.709394 -1.488105
2008-10-22 07:24:45 51°15.416 2°49.244 18.8621 0.13061 0.709406 -1.488105
2008-10-22 07:24:50 51°15.422 2°49.22 18.9061 0.13061 0.709406 -1.488105
2008-10-22 07:24:55 51°15.427 2°49.195 18.8985 0.13061 0.709443 -1.488105
2008-10-22 07:25:00 51°15.432 2°49.171 18.9222 0.13061 0.709443 -1.488105
2008-10-22 07:25:05 51°15.437 2°49.147 18.904 0.13061 0.709455 -1.488105
2008-10-22 07:25:10 51°15.443 2°49.122 18.899 0.13061 0.709455 -1.488105
2008-10-22 07:25:15 51°15.448 2°49.098 18.892 0.13061 0.709467 -1.453281
2008-10-22 07:25:20 51°15.454 2°49.074 18.9135 0.13061 0.709479 -1.488105
2008-10-22 07:25:25 51°15.459 2°49.05 18.9166 0.13061 0.709492 -1.488105
2008-10-22 07:25:30 51°15.465 2°49.026 18.8564 0.13061 0.709504 -1.453281
2008-10-22 07:25:35 51°15.47 2°49.002 18.9118 0.13061 0.709516 -1.488105
2008-10-22 07:25:40 51°15.475 2°48.977 18.8967 0.13061 0.709516 -1.488105
2008-10-22 07:25:45 51°15.481 2°48.953 18.8897 0.13061 0.709528 -1.488105
2008-10-22 07:25:50 51°15.486 2°48.929 18.9068 0.13061 0.709541 -1.488105
2008-10-22 07:25:55 51°15.491 2°48.905 18.8882 0.13061 0.709553 -1.488105
2008-10-22 07:26:00 51°15.496 2°48.881 18.8625 0.13061 0.709553 -1.488105
2008-10-22 07:26:05 51°15.501 2°48.857 18.9121 0.13061 0.709553 -1.488105
2008-10-22 07:26:10 51°15.507 2°48.833 18.9134 0.13061 0.709553 -1.488105
2008-10-22 07:26:15 51°15.512 2°48.808 18.8445 0.13061 0.709577 -1.488105
2008-10-22 07:26:20 51°15.517 2°48.784 18.8806 0.13061 0.70959 -1.488105
2008-10-22 07:26:25 51°15.522 2°48.76 18.9175 0.13061 0.709602 -1.488105
2008-10-22 07:26:30 51°15.527 2°48.735 18.8669 0.13061 0.709614 -1.488105
2008-10-22 07:26:35 51°15.532 2°48.711 18.8755 0.13061 0.709626 -1.488105
2008-10-22 07:26:40 51°15.537 2°48.687 18.8938 0.13061 0.709626 -1.488105
2008-10-22 07:26:45 51°15.542 2°48.662 18.9072 0.13061 0.709639 -1.488105
2008-10-22 07:26:50 51°15.547 2°48.638 18.8884 0.13061 0.709651 -1.488105
2008-10-22 07:26:55 51°15.552 2°48.614 18.8826 0.13061 0.709663 -1.488105
2008-10-22 07:27:00 51°15.557 2°48.589 18.902 0.13061 0.709688 -1.488105
2008-10-22 07:27:05 51°15.562 2°48.565 18.8888 0.13061 0.709688 -1.488105
2008-10-22 07:27:10 51°15.568 2°48.54 18.8969 0.13061 0.709688 -1.488105
2008-10-22 07:27:15 51°15.573 2°48.516 18.8995 0.13061 0.7097 -1.488105
2008-10-22 07:27:20 51°15.578 2°48.491 18.898 0.13061 0.7097 -1.488105
2008-10-22 07:27:25 51°15.583 2°48.467 18.9106 0.13061 0.709712 -1.488105
2008-10-22 07:27:30 51°15.588 2°48.442 18.8906 0.13061 0.709712 -1.488105
2008-10-22 07:27:35 51°15.593 2°48.418 18.9005 0.13061 0.709724 -1.488105
2008-10-22 07:27:40 51°15.598 2°48.393 18.8706 0.13061 0.709724 -1.488105
2008-10-22 07:27:45 51°15.604 2°48.369 18.9077 0.13061 0.709737 -1.488105
2008-10-22 07:27:50 51°15.609 2°48.344 18.8666 0.13061 0.709749 -1.488105
2008-10-22 07:27:55 51°15.614 2°48.32 18.9171 0.13061 0.709761 -1.488105
2008-10-22 07:28:00 51°15.619 2°48.295 18.9014 0.13061 0.709761 -1.488105
2008-10-22 07:28:05 51°15.624 2°48.271 18.8942 0.13061 0.709786 -1.488105
2008-10-22 07:28:10 51°15.629 2°48.246 18.9136 0.13061 0.709786 -1.488105
2008-10-22 07:28:15 51°15.635 2°48.222 18.8877 0.13061 0.709786 -1.488105
2008-10-22 07:28:20 51°15.64 2°48.197 18.8941 0.13061 0.709798 -1.488105
2008-10-22 07:28:25 51°15.645 2°48.173 18.839 0.13061 0.709798 -1.488105
2008-10-22 07:28:30 51°15.65 2°48.148 18.8848 0.13061 0.70981 -1.488105
2008-10-22 07:28:35 51°15.655 2°48.124 18.9022 0.13061 0.70981 -1.488105
2008-10-22 07:28:40 51°15.661 2°48.099 18.905 0.13061 0.70981 -1.488105
2008-10-22 07:28:45 51°15.666 2°48.075 18.8821 0.13061 0.709822 -1.488105
2008-10-22 07:28:50 51°15.671 2°48.051 18.915 0.13061 0.709822 -1.488105
2008-10-22 07:28:55 51°15.676 2°48.026 18.8947 0.13061 0.709822 -1.488105
2008-10-22 07:29:00 51°15.681 2°48.002 18.8901 0.13061 0.709835 -1.488105
2008-10-22 07:29:05 51°15.686 2°47.977 18.8753 0.13061 0.709847 -1.488105
2008-10-22 07:29:10 51°15.69 2°47.952 18.8427 0.13061 0.709847 -1.488105
2008-10-22 07:29:15 51°15.695 2°47.928 18.8954 0.13061 0.709859 -1.488105
2008-10-22 07:29:20 51°15.699 2°47.903 18.8874 0.13061 0.709859 -1.488105
2008-10-22 07:29:25 51°15.703 2°47.878 18.867 0.13061 0.709871 -1.488105
2008-10-22 07:29:30 51°15.709 2°47.854 18.8925 0.13061 0.709871 -1.488105
2008-10-22 07:29:35 51°15.713 2°47.829 18.8806 0.13061 0.709871 -1.488105
2008-10-22 07:29:40 51°15.719 2°47.804 18.8664 0.13061 0.709871 -1.488105
2008-10-22 07:29:45 51°15.724 2°47.78 18.8941 0.13061 0.709884 -1.488105
2008-10-22 07:29:50 51°15.729 2°47.756 18.9101 0.13061 0.709884 -1.488105
2008-10-22 07:29:55 51°15.734 2°47.732 18.911 0.13061 0.709884 -1.488105
2008-10-22 07:30:00 51°15.74 2°47.707 18.9091 0.13061 0.709884 -1.488105
2008-10-22 07:30:05 51°15.745 2°47.683 18.9016 0.13061 0.709896 -1.488105
2008-10-22 07:30:10 51°15.75 2°47.659 18.8542 0.13061 0.709896 -1.488105
2008-10-22 07:30:15 51°15.756 2°47.634 18.8932 0.13061 0.709896 -1.488105
2008-10-22 07:30:20 51°15.761 2°47.61 18.9107 0.13061 0.709896 -1.488105
2008-10-22 07:30:25 51°15.767 2°47.586 18.92 0.13061 0.709908 -1.488105
2008-10-22 07:30:30 51°15.772 2°47.562 18.88 0.13061 0.709908 -1.488105
2008-10-22 07:30:35 51°15.778 2°47.538 18.8994 0.13061 0.709921 -1.488105
2008-10-22 07:30:40 51°15.783 2°47.513 18.8964 0.13061 0.709921 -1.488105
2008-10-22 07:30:45 51°15.788 2°47.489 18.8724 0.13061 0.709921 -1.488105
2008-10-22 07:30:50 51°15.794 2°47.465 18.9211 0.13061 0.709933 -1.488105
2008-10-22 07:30:55 51°15.799 2°47.441 18.8751 0.13061 0.709945 -1.488105
2008-10-22 07:31:00 51°15.804 2°47.416 18.8817 0.13061 0.709945 -1.488105
2008-10-22 07:31:05 51°15.809 2°47.392 18.8673 0.13061 0.709945 -1.488105
2008-10-22 07:31:10 51°15.814 2°47.368 18.8866 0.13061 0.709945 -1.488105
2008-10-22 07:31:15 51°15.819 2°47.343 18.9037 0.13061 0.709945 -1.488105
2008-10-22 07:31:20 51°15.824 2°47.319 18.8929 0.13061 0.709945 -1.488105
2008-10-22 07:31:25 51°15.829 2°47.295 18.9165 0.13061 0.709933 -1.488105
2008-10-22 07:31:30 51°15.834 2°47.27 18.8947 0.13061 0.709957 -1.488105
2008-10-22 07:31:35 51°15.84 2°47.246 18.9073 0.13061 0.709945 -1.488105
2008-10-22 07:31:40 51°15.845 2°47.221 18.8853 0.13061 0.709945 -1.488105
2008-10-22 07:31:45 51°15.85 2°47.197 18.9071 0.13061 0.709945 -1.488105
2008-10-22 07:31:50 51°15.855 2°47.173 18.9054 0.13061 0.709957 -1.488105
2008-10-22 07:31:55 51°15.861 2°47.149 18.9106 0.13061 0.709957 -1.488105
2008-10-22 07:32:00 51°15.866 2°47.124 18.9006 0.13061 0.70997 -1.488105
2008-10-22 07:32:05 51°15.872 2°47.1 18.9133 0.13061 0.70997 -1.488105
2008-10-22 07:32:10 51°15.876 2°47.076 18.8827 0.13061 0.70997 -1.488105
2008-10-22 07:32:15 51°15.881 2°47.052 18.9207 0.13061 0.70997 -1.488105
2008-10-22 07:32:20 51°15.885 2°47.028 18.9065 0.13061 0.709994 -1.488105
2008-10-22 07:32:25 51°15.891 2°47.004 18.9002 0.13061 0.709982 -1.488105
2008-10-22 07:32:30 51°15.895 2°46.979 18.9012 0.13061 0.709982 -1.488105
2008-10-22 07:32:35 51°15.9 2°46.955 18.8821 0.13061 0.709994 -1.488105
2008-10-22 07:32:40 51°15.904 2°46.93 18.8384 0.13061 0.709994 -1.488105
2008-10-22 07:32:45 51°15.909 2°46.906 18.9098 0.13061 0.709982 -1.488105
2008-10-22 07:32:50 51°15.913 2°46.882 18.9234 0.13061 0.709982 -1.488105
2008-10-22 07:32:55 51°15.918 2°46.857 18.8974 0.13061 0.709982 -1.488105
2008-10-22 07:33:00 51°15.922 2°46.833 18.8922 0.13061 0.709982 -1.488105
2008-10-22 07:33:05 51°15.927 2°46.809 18.8924 0.13061 0.709982 -1.488105
2008-10-22 07:33:10 51°15.933 2°46.785 18.9094 0.13061 0.709982 -1.488105
2008-10-22 07:33:15 51°15.938 2°46.76 18.94 0.13061 0.709982 -1.488105
2008-10-22 07:33:20 51°15.943 2°46.736 18.9213 0.13061 0.709994 -1.488105
2008-10-22 07:33:25 51°15.948 2°46.712 18.9375 0.13061 0.709994 -1.488105
2008-10-22 07:33:30 51°15.952 2°46.687 18.9369 0.13061 0.710006 -1.453281
2008-10-22 07:33:35 51°15.958 2°46.663 18.9152 0.13061 0.710006 -1.488105
2008-10-22 07:33:40 51°15.962 2°46.639 18.9121 0.13061 0.710006 -1.488105
2008-10-22 07:33:45 51°15.967 2°46.615 18.9016 0.130507 0.709422 -1.453281
2008-10-22 07:33:50 51°15.972 2°46.591 18.9213 0.13061 0.710006 -1.488105
2008-10-22 07:33:55 51°15.977 2°46.566 18.9153 0.13061 0.710006 -1.488105
2008-10-22 07:34:00 51°15.981 2°46.542 18.9318 0.13061 0.709994 -1.488105
2008-10-22 07:34:05 51°15.986 2°46.518 18.9064 0.13061 0.710006 -1.488105
2008-10-22 07:34:10 51°15.991 2°46.494 18.9089 0.13061 0.710006 -1.488105
2008-10-22 07:34:15 51°15.996 2°46.47 18.9088 0.130507 0.709422 -1.488105
2008-10-22 07:34:20 51°16.001 2°46.446 18.9119 0.13061 0.710006 -1.488105
2008-10-22 07:34:25 51°16.006 2°46.421 18.898 0.130507 0.709422 -1.488105
2008-10-22 07:34:30 51°16.011 2°46.397 18.929 0.13061 0.710006 -1.488105
2008-10-22 07:34:35 51°16.016 2°46.373 18.928 0.130507 0.709422 -1.488105
2008-10-22 07:34:40 51°16.021 2°46.349 18.9168 0.130507 0.709422 -1.488105
2008-10-22 07:34:45 51°16.026 2°46.325 18.9199 0.130507 0.709434 -1.488105
2008-10-22 07:34:50 51°16.031 2°46.301 18.9 0.13061 0.710019 -1.488105
2008-10-22 07:34:55 51°16.036 2°46.277 18.9098 0.130507 0.709434 -1.488105
2008-10-22 07:35:00 51°16.041 2°46.253 18.8572 0.13061 0.710006 -1.488105
2008-10-22 07:35:05 51°16.048 2°46.229 18.9113 0.130507 0.709422 -1.488105
2008-10-22 07:35:10 51°16.054 2°46.206 18.9026 0.130507 0.709422 -1.488105
2008-10-22 07:35:15 51°16.061 2°46.182 18.9337 0.130507 0.709422 -1.488105
2008-10-22 07:35:20 51°16.068 2°46.159 18.8922 0.13061 0.710006 -1.488105
2008-10-22 07:35:25 51°16.075 2°46.136 18.9055 0.130507 0.709422 -1.488105
2008-10-22 07:35:30 51°16.082 2°46.113 18.907 0.130507 0.709422 -1.488105
2008-10-22 07:35:35 51°16.089 2°46.09 18.9173 0.13061 0.710006 -1.488105
2008-10-22 07:35:40 51°16.097 2°46.067 18.8786 0.13061 0.710006 -1.488105
2008-10-22 07:35:45 51°16.105 2°46.044 18.8944 0.130507 0.709434 -1.488105
2008-10-22 07:35:50 51°16.112 2°46.022 18.91 0.13061 0.710019 -1.488105
2008-10-22 07:35:55 51°16.12 2°45.999 18.9059 0.13061 0.710019 -1.488105
2008-10-22 07:36:00 51°16.128 2°45.976 18.9194 0.130507 0.709434 -1.488105
2008-10-22 07:36:05 51°16.136 2°45.954 18.924 0.130507 0.709422 -1.488105
2008-10-22 07:36:10 51°16.145 2°45.931 18.9254 0.130507 0.709422 -1.488105
2008-10-22 07:36:15 51°16.153 2°45.909 18.9178 0.130507 0.709434 -1.488105
2008-10-22 07:36:20 51°16.161 2°45.886 18.8824 0.13061 0.710019 -1.488105
2008-10-22 07:36:25 51°16.17 2°45.864 18.921 0.13061 0.710019 -1.488105
2008-10-22 07:36:30 51°16.178 2°45.842 18.9296 0.130507 0.709434 -1.488105
2008-10-22 07:36:35 51°16.187 2°45.819 18.892 0.130507 0.709434 -1.488105
2008-10-22 07:36:40 51°16.196 2°45.797 18.9214 0.130507 0.709434 -1.488105
2008-10-22 07:36:45 51°16.204 2°45.774 18.8974 0.13061 0.710019 -1.488105
2008-10-22 07:36:50 51°16.213 2°45.752 18.9105 0.13061 0.710019 -1.488105
2008-10-22 07:36:55 51°16.221 2°45.729 18.9176 0.130507 0.709447 -1.488105
2008-10-22 07:37:00 51°16.23 2°45.707 18.9144 0.130507 0.709447 -1.488105
2008-10-22 07:37:05 51°16.239 2°45.685 18.9377 0.13061 0.710031 -1.488105
2008-10-22 07:37:10 51°16.248 2°45.662 18.9278 0.13061 0.710031 -1.488105
2008-10-22 07:37:15 51°16.257 2°45.64 18.9438 0.13061 0.710031 -1.488105
2008-10-22 07:37:20 51°16.265 2°45.618 18.8878 0.13061 0.710043 -1.453281
2008-10-22 07:37:25 51°16.274 2°45.595 18.9464 0.13061 0.710043 -1.488105
2008-10-22 07:37:30 51°16.282 2°45.573 18.9162 0.130507 0.709459 -1.453281
2008-10-22 07:37:35 51°16.291 2°45.55 18.9409 0.130507 0.709471 -1.488105
2008-10-22 07:37:40 51°16.299 2°45.528 18.9254 0.130507 0.709471 -1.488105
2008-10-22 07:37:45 51°16.308 2°45.505 18.9117 0.13061 0.710055 -1.488105
2008-10-22 07:37:50 51°16.316 2°45.482 18.9232 0.13061 0.710055 -1.488105
2008-10-22 07:37:55 51°16.325 2°45.46 18.9041 0.13061 0.710055 -1.488105
2008-10-22 07:38:00 51°16.333 2°45.437 18.9122 0.13061 0.710068 -1.488105
2008-10-22 07:38:05 51°16.342 2°45.414 18.9146 0.13061 0.71008 -1.488105
2008-10-22 07:38:10 51°16.35 2°45.392 18.9254 0.13061 0.71008 -1.488105
2008-10-22 07:38:15 51°16.359 2°45.369 18.9351 0.13061 0.710068 -1.488105
2008-10-22 07:38:20 51°16.367 2°45.347 18.9452 0.13061 0.710092 -1.488105
2008-10-22 07:38:25 51°16.375 2°45.324 18.9238 0.13061 0.710105 -1.488105
2008-10-22 07:38:30 51°16.383 2°45.301 18.945 0.13061 0.710105 -1.488105
2008-10-22 07:38:35 51°16.391 2°45.277 18.9369 0.130507 0.70952 -1.488105
2008-10-22 07:38:40 51°16.4 2°45.255 18.9058 0.130507 0.70952 -1.488105
2008-10-22 07:38:45 51°16.408 2°45.232 18.8874 0.13061 0.710105 -1.488105
2008-10-22 07:38:50 51°16.416 2°45.209 18.9171 0.13061 0.710105 -1.488105
2008-10-22 07:38:55 51°16.425 2°45.186 18.9062 0.13061 0.710105 -1.488105
2008-10-22 07:39:00 51°16.434 2°45.164 18.9233 0.13061 0.710117 -1.488105
2008-10-22 07:39:05 51°16.442 2°45.142 18.916 0.13061 0.710129 -1.488105
2008-10-22 07:39:10 51°16.452 2°45.12 18.9422 0.13061 0.710129 -1.488105
2008-10-22 07:39:15 51°16.461 2°45.098 18.9373 0.130507 0.709545 -1.453281
2008-10-22 07:39:20 51°16.47 2°45.076 18.9338 0.13061 0.710154 -1.488105
2008-10-22 07:39:25 51°16.479 2°45.054 18.8733 0.13061 0.710166 -1.488105
2008-10-22 07:39:30 51°16.488 2°45.032 18.8842 0.13061 0.710178 -1.488105
2008-10-22 07:39:35 51°16.498 2°45.01 18.9329 0.13061 0.710178 -1.488105
2008-10-22 07:39:40 51°16.507 2°44.988 18.9425 0.13061 0.710178 -1.488105
2008-10-22 07:39:45 51°16.516 2°44.966 18.8912 0.13061 0.710178 -1.488105
2008-10-22 07:39:50 51°16.525 2°44.943 18.9224 0.13061 0.71019 -1.488105
2008-10-22 07:39:55 51°16.534 2°44.921 18.9355 0.13061 0.71019 -1.488105
2008-10-22 07:40:00 51°16.543 2°44.9 18.9085 0.13061 0.710203 -1.488105
2008-10-22 07:40:05 51°16.552 2°44.878 18.8776 0.13061 0.710203 -1.453281
2008-10-22 07:40:10 51°16.561 2°44.856 18.9344 0.13061 0.710203 -1.453281
2008-10-22 07:40:15 51°16.57 2°44.834 18.8879 0.130507 0.70963 -1.488105
2008-10-22 07:40:20 51°16.579 2°44.812 18.9294 0.130507 0.70963 -1.453281
2008-10-22 07:40:25 51°16.588 2°44.79 18.9375 0.130507 0.70963 -1.488105
2008-10-22 07:40:30 51°16.598 2°44.768 18.8897 0.13061 0.710227 -1.488105
2008-10-22 07:40:35 51°16.607 2°44.746 18.909 0.130507 0.709655 -1.453281
2008-10-22 07:40:40 51°16.616 2°44.724 18.922 0.130507 0.709655 -1.453281
2008-10-22 07:40:45 51°16.625 2°44.702 18.9269 0.130507 0.709655 -1.488105
2008-10-22 07:40:50 51°16.634 2°44.68 18.9287 0.130507 0.709667 -1.488105
2008-10-22 07:40:55 51°16.643 2°44.658 18.891 0.13061 0.710276 -1.488105
2008-10-22 07:41:00 51°16.652 2°44.636 18.9065 0.130507 0.709692 -1.488105
2008-10-22 07:41:05 51°16.661 2°44.613 18.9115 0.130507 0.709704 -1.488105
2008-10-22 07:41:10 51°16.67 2°44.591 18.9278 0.130507 0.709704 -1.488105
2008-10-22 07:41:15 51°16.679 2°44.569 18.8998 0.130507 0.709716 -1.488105
2008-10-22 07:41:20 51°16.688 2°44.547 18.9243 0.130507 0.709704 -1.488105
2008-10-22 07:41:25 51°16.697 2°44.525 18.8799 0.130507 0.709716 -1.453281
2008-10-22 07:41:30 51°16.706 2°44.503 18.9061 0.130507 0.709716 -1.488105
2008-10-22 07:41:35 51°16.715 2°44.48 18.9348 0.130507 0.709729 -1.488105
2008-10-22 07:41:40 51°16.723 2°44.458 18.9133 0.130507 0.709729 -1.488105
2008-10-22 07:41:45 51°16.732 2°44.435 18.8711 0.130507 0.709741 -1.488105
2008-10-22 07:41:50 51°16.74 2°44.412 18.9303 0.130507 0.709741 -1.488105
2008-10-22 07:41:55 51°16.749 2°44.39 18.9172 0.130507 0.709753 -1.488105
2008-10-22 07:42:00 51°16.758 2°44.368 18.9126 0.130507 0.709753 -1.453281
2008-10-22 07:42:05 51°16.766 2°44.346 18.8952 0.130507 0.709765 -1.488105
2008-10-22 07:42:10 51°16.775 2°44.323 18.929 0.130507 0.709765 -1.488105
2008-10-22 07:42:15 51°16.784 2°44.301 18.918 0.130507 0.709778 -1.488105
2008-10-22 07:42:20 51°16.793 2°44.279 18.8766 0.130507 0.70979 -1.453281
2008-10-22 07:42:25 51°16.802 2°44.257 18.8887 0.130507 0.70979 -1.488105
2008-10-22 07:42:30 51°16.812 2°44.235 18.9121 0.130507 0.709802 -1.488105
2008-10-22 07:42:35 51°16.821 2°44.213 18.8801 0.130507 0.709815 -1.453281
2008-10-22 07:42:40 51°16.831 2°44.192 18.9146 0.130507 0.709815 -1.453281
2008-10-22 07:42:45 51°16.841 2°44.17 18.8944 0.130507 0.709827 -1.488105
2008-10-22 07:42:50 51°16.851 2°44.149 18.9132 0.130507 0.709827 -1.488105
2008-10-22 07:42:55 51°16.86 2°44.128 18.8799 0.130507 0.709839 -1.488105
2008-10-22 07:43:00 51°16.87 2°44.106 18.8985 0.130507 0.709851 -1.488105
2008-10-22 07:43:05 51°16.88 2°44.085 18.9108 0.130507 0.709851 -1.488105
2008-10-22 07:43:10 51°16.89 2°44.064 18.923 0.130507 0.709851 -1.488105
2008-10-22 07:43:15 51°16.9 2°44.042 18.9345 0.130507 0.709864 -1.488105
2008-10-22 07:43:20 51°16.91 2°44.021 18.9518 0.130507 0.709876 -1.488105
2008-10-22 07:43:25 51°16.92 2°44 18.8965 0.130507 0.709888 -1.488105
2008-10-22 07:43:30 51°16.929 2°43.978 18.9302 0.130507 0.709888 -1.488105
2008-10-22 07:43:34 51°16.937 2°43.961 18.9026 0.130507 0.7099 -1.453281
2008-10-22 07:43:40 51°16.949 2°43.935 18.9342 0.130507 0.7099 -1.453281
2008-10-22 07:43:45 51°16.959 2°43.914 18.9319 0.130507 0.709913 -1.453281
2008-10-22 07:43:49 51°16.966 2°43.896 18.901 0.130507 0.709925 -1.488105
2008-10-22 07:43:54 51°16.975 2°43.875 18.9282 0.130507 0.709937 -1.488105
2008-10-22 07:43:59 51°16.984 2°43.853 18.919 0.130507 0.709937 -1.488105
2008-10-22 07:44:04 51°16.994 2°43.831 18.9181 0.130507 0.70995 -1.488105
2008-10-22 07:44:09 51°17.003 2°43.809 18.9195 0.130507 0.70995 -1.488105
2008-10-22 07:44:13 51°17.01 2°43.791 18.9123 0.130507 0.709962 -1.453281
2008-10-22 07:44:18 51°17.019 2°43.769 18.9437 0.130507 0.709962 -1.488105
2008-10-22 07:44:23 51°17.028 2°43.747 18.9441 0.130507 0.709974 -1.488105
2008-10-22 07:44:28 51°17.037 2°43.725 18.9311 0.130507 0.709974 -1.453281
2008-10-22 07:44:33 51°17.046 2°43.703 18.9399 0.130507 0.709986 -1.488105
2008-10-22 07:44:38 51°17.055 2°43.681 18.9327 0.130507 0.709986 -1.488105
2008-10-22 07:44:42 51°17.062 2°43.663 18.9323 0.130507 0.709999 -1.453281
2008-10-22 07:44:47 51°17.071 2°43.641 18.9327 0.130507 0.710011 -1.453281
2008-10-22 07:44:52 51°17.08 2°43.619 18.9359 0.130507 0.710023 -1.488105
2008-10-22 07:44:57 51°17.089 2°43.597 18.9215 0.130507 0.710023 -1.488105
2008-10-22 07:45:02 51°17.098 2°43.575 18.9442 0.130507 0.710036 -1.453281
2008-10-22 07:45:07 51°17.108 2°43.553 18.9157 0.130507 0.710036 -1.453281
2008-10-22 07:45:12 51°17.117 2°43.531 18.9213 0.130507 0.710048 -1.488105
2008-10-22 07:45:17 51°17.126 2°43.509 18.9249 0.130507 0.71006 -1.488105
2008-10-22 07:45:21 51°17.133 2°43.492 18.9334 0.130507 0.71006 -1.488105
2008-10-22 07:45:26 51°17.142 2°43.47 18.9421 0.130507 0.710072 -1.453281
2008-10-22 07:45:31 51°17.151 2°43.448 18.938 0.130507 0.710085 -1.453281
2008-10-22 07:45:37 51°17.162 2°43.422 18.9346 0.130507 0.710085 -1.453281
2008-10-22 07:45:41 51°17.169 2°43.404 18.9299 0.130507 0.710072 -1.453281
2008-10-22 07:45:46 51°17.179 2°43.383 18.904 0.130507 0.710097 -1.488105
2008-10-22 07:45:51 51°17.188 2°43.361 18.9469 0.130507 0.710097 -1.488105
2008-10-22 07:45:56 51°17.197 2°43.339 18.9237 0.130507 0.710121 -1.488105
2008-10-22 07:46:01 51°17.206 2°43.317 18.9077 0.130507 0.710121 -1.453281
2008-10-22 07:46:06 51°17.216 2°43.296 18.9517 0.130507 0.710121 -1.453281
2008-10-22 07:46:11 51°17.225 2°43.274 18.9153 0.130507 0.710134 -1.453281
2008-10-22 07:46:16 51°17.234 2°43.253 18.9399 0.130507 0.710134 -1.453281
2008-10-22 07:46:21 51°17.243 2°43.231 18.8969 0.130507 0.710146 -1.453281
2008-10-22 07:46:26 51°17.253 2°43.21 18.9122 0.130507 0.710171 -1.453281
2008-10-22 07:46:31 51°17.262 2°43.189 18.9127 0.130507 0.710171 -1.488105
2008-10-22 07:46:36 51°17.271 2°43.167 18.9307 0.130507 0.710171 -1.488105
2008-10-22 07:46:41 51°17.28 2°43.146 18.9256 0.130507 0.710183 -1.488105
2008-10-22 07:46:46 51°17.29 2°43.125 18.935 0.130507 0.710195 -1.488105
2008-10-22 07:46:51 51°17.299 2°43.103 18.9194 0.130507 0.710195 -1.488105
2008-10-22 07:46:56 51°17.309 2°43.082 18.9487 0.130507 0.710195 -1.488105
2008-10-22 07:47:01 51°17.319 2°43.062 18.9279 0.130507 0.710207 -1.488105
2008-10-22 07:47:06 51°17.329 2°43.041 18.9334 0.130507 0.710207 -1.488105
2008-10-22 07:47:12 51°17.341 2°43.015 18.9232 0.130507 0.71022 -1.488105
2008-10-22 07:47:17 51°17.351 2°42.995 18.9561 0.130507 0.710232 -1.488105
2008-10-22 07:47:21 51°17.359 2°42.978 18.941 0.130507 0.710232 -1.488105
2008-10-22 07:47:26 51°17.369 2°42.957 18.9494 0.130507 0.710257 -1.453281
2008-10-22 07:47:31 51°17.378 2°42.936 18.947 0.130507 0.710257 -1.453281
2008-10-22 07:47:37 51°17.39 2°42.911 18.9329 0.130507 0.710257 -1.453281
2008-10-22 07:47:41 51°17.397 2°42.893 18.9204 0.130507 0.710281 -1.453281
2008-10-22 07:47:46 51°17.407 2°42.872 18.8992 0.130507 0.710281 -1.453281
2008-10-22 07:47:51 51°17.416 2°42.851 18.9373 0.130507 0.710281 -1.488105
2008-10-22 07:47:57 51°17.428 2°42.826 18.8988 0.130507 0.710294 -1.488105
2008-10-22 07:48:01 51°17.436 2°42.809 18.9583 0.130507 0.710306 -1.453281
2008-10-22 07:48:06 51°17.446 2°42.788 18.9334 0.130507 0.710306 -1.453281
2008-10-22 07:48:11 51°17.456 2°42.767 18.946 0.130507 0.710318 -1.488105
2008-10-22 07:48:16 51°17.466 2°42.745 18.9255 0.130507 0.710318 -1.453281
2008-10-22 07:48:21 51°17.475 2°42.724 18.9022 0.130507 0.710343 -1.453281
2008-10-22 07:48:26 51°17.485 2°42.703 18.9431 0.130507 0.710355 -1.453281
2008-10-22 07:48:31 51°17.495 2°42.681 18.9268 0.130507 0.710355 -1.488105
2008-10-22 07:48:36 51°17.504 2°42.66 18.9317 0.130507 0.710355 -1.488105
2008-10-22 07:48:41 51°17.514 2°42.638 18.9315 0.130507 0.71038 -1.488105
2008-10-22 07:48:45 51°17.521 2°42.621 18.9363 0.130507 0.71038 -1.488105
2008-10-22 07:48:51 51°17.534 2°42.596 18.9073 0.130507 0.710392 -1.488105
2008-10-22 07:48:56 51°17.544 2°42.575 18.9358 0.130507 0.710404 -1.488105
2008-10-22 07:49:01 51°17.554 2°42.554 18.9356 0.130507 0.710416 -1.453281
2008-10-22 07:49:06 51°17.564 2°42.533 18.9321 0.130507 0.710416 -1.453281
2008-10-22 07:49:11 51°17.575 2°42.512 18.9382 0.130507 0.710429 -1.453281
2008-10-22 07:49:17 51°17.587 2°42.487 18.9337 0.130507 0.710441 -1.453281
2008-10-22 07:49:21 51°17.595 2°42.47 18.9352 0.130507 0.710453 -1.453281
2008-10-22 07:49:26 51°17.605 2°42.449 18.9542 0.130507 0.710453 -1.488105
2008-10-22 07:49:31 51°17.615 2°42.427 18.9438 0.130507 0.710466 -1.453281
2008-10-22 07:49:36 51°17.625 2°42.406 18.9244 0.130507 0.710466 -1.453281
2008-10-22 07:49:41 51°17.635 2°42.385 18.9426 0.130507 0.710478 -1.488105
2008-10-22 07:49:46 51°17.645 2°42.364 18.925 0.130507 0.71049 -1.488105
2008-10-22 07:49:51 51°17.655 2°42.343 18.9327 0.130507 0.71049 -1.488105
2008-10-22 07:49:57 51°17.668 2°42.318 18.9566 0.130507 0.710503 -1.488105
2008-10-22 07:50:01 51°17.676 2°42.302 18.9552 0.130507 0.710527 -1.488105
2008-10-22 07:50:06 51°17.686 2°42.28 18.9508 0.130507 0.710527 -1.488105
2008-10-22 07:50:11 51°17.696 2°42.259 18.9384 0.130507 0.710539 -1.453281
2008-10-22 07:50:17 51°17.707 2°42.233 18.9506 0.130507 0.710539 -1.453281
2008-10-22 07:50:21 51°17.715 2°42.216 18.943 0.130507 0.710564 -1.488105
2008-10-22 07:50:26 51°17.724 2°42.194 18.9476 0.130507 0.710564 -1.453281
2008-10-22 07:50:31 51°17.734 2°42.173 18.9671 0.130507 0.710576 -1.488105
2008-10-22 07:50:36 51°17.743 2°42.151 18.9524 0.130507 0.710576 -1.488105
2008-10-22 07:50:41 51°17.753 2°42.129 18.946 0.130507 0.710589 -1.453281
2008-10-22 07:50:46 51°17.762 2°42.107 18.9453 0.130507 0.710601 -1.488105
2008-10-22 07:50:51 51°17.771 2°42.085 18.95 0.130507 0.710613 -1.453281
2008-10-22 07:50:56 51°17.78 2°42.063 18.9567 0.130507 0.710613 -1.453281
2008-10-22 07:51:01 51°17.789 2°42.042 18.8932 0.130507 0.710626 -1.453281
2008-10-22 07:51:06 51°17.799 2°42.02 18.9189 0.130507 0.710626 -1.453281
2008-10-22 07:51:11 51°17.808 2°41.999 18.946 0.130507 0.71065 -1.488105
2008-10-22 07:51:16 51°17.817 2°41.977 18.9448 0.130507 0.710662 -1.453281
2008-10-22 07:51:21 51°17.827 2°41.955 18.9285 0.130507 0.710675 -1.453281
2008-10-22 07:51:26 51°17.836 2°41.933 18.9493 0.130507 0.710687 -1.453281
2008-10-22 07:51:31 51°17.846 2°41.912 18.9521 0.130507 0.710699 -1.453281
2008-10-22 07:51:37 51°17.857 2°41.886 18.9414 0.130507 0.710699 -1.453281
2008-10-22 07:51:41 51°17.865 2°41.868 18.9552 0.130507 0.710712 -1.453281
2008-10-22 07:51:47 51°17.876 2°41.843 18.9444 0.130507 0.710724 -1.453281
2008-10-22 07:51:51 51°17.884 2°41.825 18.9629 0.130507 0.710724 -1.453281
2008-10-22 07:51:56 51°17.893 2°41.804 18.913 0.130507 0.710749 -1.453281
2008-10-22 07:52:01 51°17.902 2°41.782 18.9049 0.130507 0.710761 -1.453281
2008-10-22 07:52:06 51°17.911 2°41.76 18.9477 0.130507 0.710761 -1.453281
2008-10-22 07:52:11 51°17.92 2°41.738 18.9512 0.130507 0.710773 -1.453281
2008-10-22 07:52:17 51°17.932 2°41.712 18.9229 0.130507 0.710773 -1.453281
2008-10-22 07:52:21 51°17.939 2°41.695 18.9553 0.130404 0.7102 -1.488105
2008-10-22 07:52:26 51°17.948 2°41.673 18.9511 0.130404 0.710225 -1.488105
2008-10-22 07:52:31 51°17.957 2°41.652 18.9585 0.130404 0.710225 -1.488105
2008-10-22 07:52:37 51°17.967 2°41.625 18.9202 0.130404 0.710225 -1.488105
2008-10-22 07:52:41 51°17.974 2°41.607 18.9532 0.130404 0.710237 -1.453281
2008-10-22 07:52:46 51°17.983 2°41.585 18.9509 0.130404 0.710249 -1.453281
2008-10-22 07:52:51 51°17.991 2°41.563 18.95 0.130404 0.710249 -1.453281
2008-10-22 07:52:57 51°18.002 2°41.536 18.9389 0.130404 0.710262 -1.453281
2008-10-22 07:53:01 51°18.009 2°41.518 18.9586 0.130404 0.710274 -1.453281
2008-10-22 07:53:05 51°18.016 2°41.501 18.9394 0.130404 0.710274 -1.453281
2008-10-22 07:53:11 51°18.027 2°41.475 18.9359 0.130404 0.710286 -1.453281
2008-10-22 07:53:16 51°18.036 2°41.453 18.9341 0.130404 0.710299 -1.453281
2008-10-22 07:53:21 51°18.046 2°41.431 18.9389 0.130404 0.710311 -1.453281
2008-10-22 07:53:26 51°18.055 2°41.409 18.9479 0.130404 0.710323 -1.453281
2008-10-22 07:53:31 51°18.064 2°41.387 18.9303 0.130404 0.710335 -1.453281
2008-10-22 07:53:37 51°18.075 2°41.361 18.9701 0.130404 0.710335 -1.453281
2008-10-22 07:53:41 51°18.082 2°41.343 18.9484 0.130404 0.71036 -1.453281
2008-10-22 07:53:46 51°18.09 2°41.321 18.945 0.130404 0.71036 -1.453281
2008-10-22 07:53:51 51°18.099 2°41.298 18.9524 0.130404 0.710372 -1.488105
2008-10-22 07:53:56 51°18.108 2°41.276 18.961 0.130404 0.710385 -1.453281
2008-10-22 07:54:01 51°18.117 2°41.255 18.9474 0.130404 0.710385 -1.453281
2008-10-22 07:54:06 51°18.126 2°41.233 18.9673 0.130404 0.710385 -1.453281
2008-10-22 07:54:11 51°18.135 2°41.211 18.9772 0.130404 0.710397 -1.453281
2008-10-22 07:54:17 51°18.146 2°41.185 18.9475 0.130404 0.710409 -1.453281
2008-10-22 07:54:21 51°18.153 2°41.168 18.9626 0.130404 0.710409 -1.453281
2008-10-22 07:54:26 51°18.163 2°41.146 18.9352 0.130404 0.710434 -1.453281
2008-10-22 07:54:31 51°18.172 2°41.124 18.9469 0.130404 0.710446 -1.453281
2008-10-22 07:54:36 51°18.181 2°41.103 18.9442 0.130404 0.710446 -1.453281
2008-10-22 07:54:41 51°18.19 2°41.081 18.945 0.130404 0.710459 -1.453281
2008-10-22 07:54:46 51°18.199 2°41.06 18.9471 0.130404 0.710459 -1.453281
2008-10-22 07:54:51 51°18.208 2°41.038 18.9547 0.130404 0.710471 -1.453281
2008-10-22 07:54:57 51°18.219 2°41.012 18.9268 0.130404 0.710483 -1.453281
2008-10-22 07:55:01 51°18.226 2°40.994 18.9186 0.130404 0.710483 -1.488105
2008-10-22 07:55:05 51°18.232 2°40.977 18.9623 0.130404 0.710483 -1.488105
2008-10-22 07:55:11 51°18.243 2°40.951 18.9503 0.130404 0.710508 -1.453281
2008-10-22 07:55:16 51°18.252 2°40.929 18.9367 0.130404 0.71052 -1.453281
2008-10-22 07:55:21 51°18.261 2°40.908 18.9453 0.130404 0.71052 -1.453281
2008-10-22 07:55:26 51°18.27 2°40.886 18.9342 0.130404 0.710532 -1.453281
2008-10-22 07:55:31 51°18.279 2°40.865 18.9566 0.130404 0.710545 -1.488105
2008-10-22 07:55:36 51°18.288 2°40.843 18.9648 0.130404 0.710545 -1.488105
2008-10-22 07:55:41 51°18.297 2°40.822 18.9468 0.130404 0.710557 -1.453281
2008-10-22 07:55:46 51°18.306 2°40.8 18.9668 0.130404 0.710569 -1.453281
2008-10-22 07:55:51 51°18.315 2°40.778 18.9557 0.130404 0.710594 -1.453281
2008-10-22 07:55:56 51°18.324 2°40.757 18.9525 0.130404 0.710594 -1.453281
2008-10-22 07:56:01 51°18.333 2°40.735 18.942 0.130404 0.710606 -1.453281
2008-10-22 07:56:06 51°18.342 2°40.713 18.9706 0.130404 0.710606 -1.453281
2008-10-22 07:56:11 51°18.351 2°40.691 18.952 0.130404 0.710619 -1.453281
2008-10-22 07:56:16 51°18.36 2°40.67 18.9295 0.130404 0.710631 -1.453281
2008-10-22 07:56:21 51°18.369 2°40.648 18.9303 0.130404 0.710643 -1.453281
2008-10-22 07:56:26 51°18.378 2°40.627 18.9733 0.130404 0.710656 -1.453281
2008-10-22 07:56:31 51°18.387 2°40.605 18.9753 0.130404 0.710656 -1.453281
2008-10-22 07:56:36 51°18.396 2°40.584 18.9669 0.130404 0.710656 -1.453281
2008-10-22 07:56:41 51°18.405 2°40.562 18.9602 0.130404 0.71068 -1.453281
2008-10-22 07:56:46 51°18.414 2°40.541 18.9642 0.130404 0.710693 -1.453281
2008-10-22 07:56:51 51°18.423 2°40.519 18.9573 0.130404 0.710705 -1.453281
2008-10-22 07:56:57 51°18.434 2°40.494 18.9766 0.130404 0.710705 -1.453281
2008-10-22 07:57:01 51°18.441 2°40.477 18.968 0.130404 0.71073 -1.453281
2008-10-22 07:57:06 51°18.45 2°40.455 18.9775 0.130404 0.71073 -1.453281
2008-10-22 07:57:11 51°18.459 2°40.434 18.9575 0.130404 0.710742 -1.453281
2008-10-22 07:57:17 51°18.47 2°40.408 18.9538 0.130404 0.710742 -1.488105
2008-10-22 07:57:21 51°18.478 2°40.391 18.9704 0.130404 0.710754 -1.453281
2008-10-22 07:57:25 51°18.485 2°40.374 18.9673 0.130404 0.710766 -1.453281
2008-10-22 07:57:31 51°18.496 2°40.349 18.9727 0.130404 0.710779 -1.453281
2008-10-22 07:57:36 51°18.505 2°40.328 18.956 0.130404 0.710779 -1.453281
2008-10-22 07:57:41 51°18.514 2°40.307 18.9795 0.130404 0.710791 -1.453281
2008-10-22 07:57:46 51°18.524 2°40.286 18.9702 0.130404 0.710816 -1.453281
2008-10-22 07:57:51 51°18.533 2°40.264 18.9796 0.130404 0.710816 -1.453281
2008-10-22 07:57:56 51°18.542 2°40.243 18.9586 0.130404 0.71084 -1.453281
2008-10-22 07:58:01 51°18.551 2°40.221 18.96 0.130404 0.71084 -1.453281
2008-10-22 07:58:06 51°18.561 2°40.2 18.9745 0.130404 0.71084 -1.453281
2008-10-22 07:58:11 51°18.57 2°40.178 18.9559 0.130404 0.710853 -1.453281
2008-10-22 07:58:16 51°18.579 2°40.157 18.9354 0.130404 0.710853 -1.453281
2008-10-22 07:58:21 51°18.588 2°40.135 18.9616 0.130404 0.710877 -1.453281
2008-10-22 07:58:26 51°18.597 2°40.113 18.9676 0.130404 0.710877 -1.453281
2008-10-22 07:58:31 51°18.607 2°40.092 18.9583 0.130404 0.710902 -1.453281
2008-10-22 07:58:37 51°18.617 2°40.065 18.9608 0.130404 0.710902 -1.453281
2008-10-22 07:58:41 51°18.625 2°40.048 18.9775 0.130404 0.710902 -1.453281
2008-10-22 07:58:46 51°18.634 2°40.027 18.9706 0.130404 0.710914 -1.453281
2008-10-22 07:58:51 51°18.643 2°40.005 18.9805 0.130404 0.710927 -1.453281
2008-10-22 07:58:56 51°18.652 2°39.983 18.9716 0.130404 0.710927 -1.453281
2008-10-22 07:59:01 51°18.661 2°39.961 18.9622 0.130404 0.710951 -1.453281
2008-10-22 07:59:06 51°18.67 2°39.939 18.9478 0.130404 0.710951 -1.453281
2008-10-22 07:59:12 51°18.682 2°39.913 18.9825 0.130404 0.710939 -1.453281
2008-10-22 07:59:17 51°18.691 2°39.891 18.9493 0.130404 0.710964 -1.453281
2008-10-22 07:59:21 51°18.698 2°39.874 18.9551 0.130404 0.710976 -1.453281
2008-10-22 07:59:26 51°18.708 2°39.853 18.9611 0.130404 0.710988 -1.453281
2008-10-22 07:59:31 51°18.717 2°39.831 18.9638 0.130404 0.711001 -1.453281
2008-10-22 07:59:36 51°18.727 2°39.81 18.9855 0.130404 0.711001 -1.453281
2008-10-22 07:59:41 51°18.736 2°39.789 18.9322 0.130404 0.711025 -1.453281
2008-10-22 07:59:46 51°18.745 2°39.767 18.966 0.130404 0.711025 -1.453281
2008-10-22 07:59:51 51°18.755 2°39.745 18.9733 0.130404 0.71105 -1.453281
2008-10-22 07:59:56 51°18.764 2°39.723 18.9901 0.130404 0.711062 -1.453281
2008-10-22 08:00:01 51°18.774 2°39.702 18.9559 0.130404 0.711075 -1.453281
2008-10-22 08:00:06 51°18.783 2°39.68 18.9913 0.130404 0.711075 -1.453281
2008-10-22 08:00:11 51°18.792 2°39.658 18.9918 0.130404 0.711087 -1.453281
2008-10-22 08:00:16 51°18.802 2°39.636 18.9875 0.130404 0.711087 -1.453281
2008-10-22 08:00:21 51°18.811 2°39.614 18.993 0.130404 0.711099 -1.453281
2008-10-22 08:00:26 51°18.82 2°39.593 18.9847 0.130404 0.711112 -1.453281
2008-10-22 08:00:31 51°18.829 2°39.57 18.9588 0.130404 0.711124 -1.453281
2008-10-22 08:00:37 51°18.84 2°39.544 18.9785 0.130404 0.711124 -1.453281
2008-10-22 08:00:41 51°18.847 2°39.526 18.9838 0.130404 0.711136 -1.453281
2008-10-22 08:00:45 51°18.854 2°39.509 18.9987 0.130404 0.711149 -1.453281
2008-10-22 08:00:51 51°18.866 2°39.482 18.9902 0.130404 0.711161 -1.453281
2008-10-22 08:00:56 51°18.874 2°39.46 18.9921 0.130404 0.711173 -1.453281
2008-10-22 08:01:01 51°18.883 2°39.438 18.9574 0.130404 0.711186 -1.453281
2008-10-22 08:01:06 51°18.892 2°39.415 18.9932 0.130404 0.711186 -1.453281
2008-10-22 08:01:12 51°18.903 2°39.389 18.9728 0.130404 0.711186 -1.488105
2008-10-22 08:01:17 51°18.912 2°39.367 18.9857 0.130404 0.711198 -1.453281
2008-10-22 08:01:21 51°18.92 2°39.35 18.9901 0.130404 0.711223 -1.453281
2008-10-22 08:01:26 51°18.929 2°39.327 18.99 0.130404 0.711223 -1.453281
2008-10-22 08:01:31 51°18.938 2°39.305 18.9637 0.130404 0.711247 -1.453281
2008-10-22 08:01:37 51°18.948 2°39.278 18.9851 0.130404 0.711247 -1.453281
2008-10-22 08:01:41 51°18.955 2°39.26 18.9598 0.130302 0.710661 -1.453281
2008-10-22 08:01:46 51°18.964 2°39.238 18.966 0.130302 0.710661 -1.453281
2008-10-22 08:01:51 51°18.974 2°39.216 18.9585 0.130302 0.710686 -1.453281
2008-10-22 08:01:56 51°18.983 2°39.195 18.9951 0.130302 0.710698 -1.453281
2008-10-22 08:02:01 51°18.993 2°39.173 18.9928 0.130302 0.710698 -1.453281
2008-10-22 08:02:05 51°19 2°39.155 18.9903 0.130302 0.710698 -1.453281
2008-10-22 08:02:11 51°19.011 2°39.129 18.9878 0.130302 0.710711 -1.453281
2008-10-22 08:02:16 51°19.021 2°39.107 18.9807 0.130302 0.710723 -1.453281
2008-10-22 08:02:21 51°19.03 2°39.085 18.9586 0.130302 0.710735 -1.453281
2008-10-22 08:02:26 51°19.04 2°39.063 18.9995 0.130302 0.710748 -1.453281
2008-10-22 08:02:31 51°19.049 2°39.041 18.9893 0.130302 0.71076 -1.453281
2008-10-22 08:02:37 51°19.061 2°39.015 19.0063 0.130302 0.71076 -1.453281
2008-10-22 08:02:41 51°19.068 2°38.998 18.9772 0.130302 0.710785 -1.453281
2008-10-22 08:02:47 51°19.079 2°38.971 18.9966 0.130302 0.710785 -1.453281
2008-10-22 08:02:51 51°19.087 2°38.954 18.9932 0.130302 0.710797 -1.453281
2008-10-22 08:02:56 51°19.096 2°38.932 19.0009 0.130302 0.710809 -1.453281
2008-10-22 08:03:01 51°19.106 2°38.91 18.9813 0.130302 0.710822 -1.453281
2008-10-22 08:03:06 51°19.115 2°38.888 19.0038 0.130302 0.710822 -1.453281
2008-10-22 08:03:12 51°19.126 2°38.862 18.9893 0.130302 0.710846 -1.453281
2008-10-22 08:03:17 51°19.136 2°38.84 19.0178 0.130302 0.710846 -1.453281
2008-10-22 08:03:21 51°19.143 2°38.822 19.0027 0.130302 0.710859 -1.453281
2008-10-22 08:03:26 51°19.152 2°38.8 18.9849 0.130302 0.710871 -1.453281
2008-10-22 08:03:31 51°19.161 2°38.778 18.9808 0.130302 0.710883 -1.488105
2008-10-22 08:03:36 51°19.17 2°38.756 18.9781 0.130302 0.710883 -1.488105
2008-10-22 08:03:41 51°19.18 2°38.734 18.9889 0.130302 0.710896 -1.453281
2008-10-22 08:03:46 51°19.189 2°38.712 19.0028 0.130302 0.710908 -1.453281
2008-10-22 08:03:51 51°19.198 2°38.69 18.9913 0.130302 0.71092 -1.453281
2008-10-22 08:03:57 51°19.209 2°38.664 18.9967 0.130302 0.710933 -1.453281
2008-10-22 08:04:01 51°19.217 2°38.646 18.9706 0.130302 0.710945 -1.453281
2008-10-22 08:04:05 51°19.224 2°38.629 18.9835 0.130302 0.710945 -1.453281
2008-10-22 08:04:11 51°19.235 2°38.602 18.9888 0.130302 0.710957 -1.453281
2008-10-22 08:04:16 51°19.244 2°38.58 19.0008 0.130302 0.71097 -1.453281
2008-10-22 08:04:21 51°19.253 2°38.558 19.0103 0.130302 0.710982 -1.453281
2008-10-22 08:04:26 51°19.262 2°38.536 19.0088 0.130302 0.710994 -1.453281
2008-10-22 08:04:31 51°19.271 2°38.514 19.0092 0.130302 0.710994 -1.453281
2008-10-22 08:04:36 51°19.281 2°38.492 19.0193 0.130302 0.710994 -1.453281
2008-10-22 08:04:41 51°19.289 2°38.47 19.0017 0.130302 0.711019 -1.453281
2008-10-22 08:04:47 51°19.3 2°38.443 19.0145 0.130302 0.711031 -1.453281
2008-10-22 08:04:51 51°19.307 2°38.425 19.0164 0.130302 0.711044 -1.453281
2008-10-22 08:04:56 51°19.317 2°38.404 19.0094 0.130302 0.711056 -1.453281
2008-10-22 08:05:01 51°19.325 2°38.382 19.0169 0.130302 0.711068 -1.453281
2008-10-22 08:05:06 51°19.335 2°38.36 19.0048 0.130302 0.711068 -1.453281
2008-10-22 08:05:12 51°19.345 2°38.333 19.0185 0.130302 0.711081 -1.453281
2008-10-22 08:05:17 51°19.354 2°38.311 19.0102 0.130302 0.711093 -1.453281
2008-10-22 08:05:21 51°19.361 2°38.293 19.0211 0.130302 0.711105 -1.453281
2008-10-22 08:05:26 51°19.371 2°38.271 18.9907 0.130302 0.711118 -1.453281
2008-10-22 08:05:31 51°19.379 2°38.25 19.0179 0.130302 0.71113 -1.453281
2008-10-22 08:05:36 51°19.388 2°38.228 18.9756 0.130302 0.71113 -1.453281
2008-10-22 08:05:41 51°19.397 2°38.205 19.015 0.130302 0.711143 -1.453281
2008-10-22 08:05:46 51°19.407 2°38.183 18.9872 0.130302 0.711155 -1.453281
2008-10-22 08:05:51 51°19.416 2°38.162 18.9921 0.130302 0.711167 -1.453281
2008-10-22 08:05:57 51°19.427 2°38.135 19.0003 0.130302 0.71118 -1.453281
2008-10-22 08:06:01 51°19.434 2°38.118 19.005 0.130302 0.711192 -1.453281
2008-10-22 08:06:05 51°19.442 2°38.101 18.9962 0.130302 0.711192 -1.453281
2008-10-22 08:06:11 51°19.453 2°38.075 19.016 0.130302 0.711204 -1.453281
2008-10-22 08:06:17 51°19.465 2°38.049 19.0051 0.130302 0.711229 -1.453281
2008-10-22 08:06:21 51°19.472 2°38.031 19.0234 0.130302 0.711229 -1.453281
2008-10-22 08:06:26 51°19.482 2°38.01 18.9988 0.130302 0.711241 -1.453281
2008-10-22 08:06:31 51°19.491 2°37.988 19.022 0.130302 0.711266 -1.453281
2008-10-22 08:06:37 51°19.502 2°37.962 19.0146 0.130302 0.711266 -1.453281
2008-10-22 08:06:41 51°19.51 2°37.944 19.0247 0.130302 0.711266 -1.453281
2008-10-22 08:06:45 51°19.517 2°37.927 19.0045 0.130302 0.711278 -1.453281
2008-10-22 08:06:51 51°19.529 2°37.901 19.0048 0.130302 0.711291 -1.453281
2008-10-22 08:06:56 51°19.538 2°37.879 19.0233 0.130302 0.711303 -1.453281
2008-10-22 08:07:01 51°19.547 2°37.858 19.0237 0.130302 0.711316 -1.453281
2008-10-22 08:07:06 51°19.557 2°37.837 19.0328 0.130302 0.711316 -1.453281
2008-10-22 08:07:11 51°19.567 2°37.815 19.0259 0.130302 0.711328 -1.453281
2008-10-22 08:07:17 51°19.578 2°37.789 19.0175 0.130302 0.71134 -1.453281
2008-10-22 08:07:21 51°19.586 2°37.772 19.0316 0.130302 0.711353 -1.453281
2008-10-22 08:07:27 51°19.597 2°37.746 19.0335 0.130302 0.711377 -1.453281
2008-10-22 08:07:31 51°19.605 2°37.729 19.0228 0.130302 0.71139 -1.453281
2008-10-22 08:07:36 51°19.614 2°37.708 19.0294 0.130302 0.71139 -1.453281
2008-10-22 08:07:41 51°19.625 2°37.687 18.9836 0.130302 0.711402 -1.453281
2008-10-22 08:07:46 51°19.634 2°37.666 19.0128 0.130302 0.711414 -1.453281
2008-10-22 08:07:52 51°19.646 2°37.64 19.0043 0.130302 0.711427 -1.453281
2008-10-22 08:07:57 51°19.655 2°37.619 19.028 0.130302 0.711451 -1.453281
2008-10-22 08:08:01 51°19.663 2°37.601 19.0152 0.130302 0.711451 -1.453281
2008-10-22 08:08:05 51°19.67 2°37.584 19.0164 0.130302 0.711451 -1.453281
2008-10-22 08:08:12 51°19.684 2°37.554 19.0018 0.130302 0.711464 -1.453281
2008-10-22 08:08:17 51°19.694 2°37.533 19.0189 0.130302 0.711476 -1.453281
2008-10-22 08:08:21 51°19.702 2°37.517 19.043 0.130302 0.711489 -1.453281
2008-10-22 08:08:26 51°19.713 2°37.496 19.0198 0.130302 0.711513 -1.453281
2008-10-22 08:08:31 51°19.723 2°37.475 19.0373 0.130302 0.711513 -1.453281
2008-10-22 08:08:37 51°19.734 2°37.449 19.0431 0.130302 0.711513 -1.453281
2008-10-22 08:08:41 51°19.742 2°37.432 19.0096 0.130302 0.711538 -1.453281
2008-10-22 08:08:46 51°19.751 2°37.411 19.0305 0.130302 0.71155 -1.453281
2008-10-22 08:08:51 51°19.762 2°37.39 19.0099 0.130302 0.711563 -1.453281
2008-10-22 08:08:56 51°19.771 2°37.369 19.026 0.130302 0.711575 -1.453281
2008-10-22 08:09:01 51°19.781 2°37.349 19.0354 0.130302 0.711588 -1.453281
2008-10-22 08:09:06 51°19.791 2°37.328 19.0358 0.130302 0.711588 -1.453281
2008-10-22 08:09:11 51°19.8 2°37.309 19.0313 0.130302 0.7116 -1.453281
2008-10-22 08:09:16 51°19.809 2°37.29 19.0258 0.130302 0.711625 -1.453281
2008-10-22 08:09:21 51°19.819 2°37.271 19.0377 0.130302 0.711625 -1.453281
2008-10-22 08:09:27 51°19.83 2°37.249 19.0427 0.130199 0.71105 -1.453281
2008-10-22 08:09:31 51°19.837 2°37.235 19.0287 0.130302 0.711649 -1.453281
2008-10-22 08:09:36 51°19.847 2°37.216 19.0537 0.130302 0.711649 -1.453281
2008-10-22 08:09:41 51°19.856 2°37.199 19.0506 0.130199 0.711075 -1.453281
2008-10-22 08:09:46 51°19.866 2°37.181 19.0341 0.130199 0.711087 -1.453281
2008-10-22 08:09:52 51°19.877 2°37.16 19.0576 0.130199 0.711099 -1.453281
2008-10-22 08:09:57 51°19.887 2°37.143 19.0567 0.130199 0.711112 -1.453281
2008-10-22 08:10:01 51°19.895 2°37.13 19.0273 0.130199 0.711124 -1.453281
2008-10-22 08:10:06 51°19.905 2°37.113 19.0403 0.130199 0.711124 -1.453281
2008-10-22 08:10:11 51°19.914 2°37.095 19.0202 0.130199 0.711136 -1.453281
2008-10-22 08:10:16 51°19.924 2°37.078 19.0173 0.130199 0.711149 -1.453281
2008-10-22 08:10:21 51°19.934 2°37.061 19.0476 0.130199 0.711174 -1.453281
2008-10-22 08:10:26 51°19.944 2°37.044 19.0445 0.130199 0.711186 -1.453281
2008-10-22 08:10:31 51°19.953 2°37.027 19.0435 0.130199 0.711198 -1.453281
2008-10-22 08:10:37 51°19.965 2°37.007 19.0477 0.130199 0.711198 -1.453281
2008-10-22 08:10:41 51°19.973 2°36.993 19.0579 0.130199 0.711211 -1.453281
2008-10-22 08:10:46 51°19.982 2°36.976 19.0534 0.130199 0.711223 -1.453281
2008-10-22 08:10:51 51°19.991 2°36.959 19.0583 0.130199 0.711235 -1.453281
2008-10-22 08:10:56 51°20 2°36.944 19.0246 0.130199 0.71126 -1.453281
2008-10-22 08:11:01 51°20.008 2°36.929 19.0432 0.130199 0.71126 -1.453281
2008-10-22 08:11:06 51°20.017 2°36.914 19.0462 0.130199 0.71126 -1.453281
2008-10-22 08:11:11 51°20.025 2°36.902 19.0481 0.130199 0.711273 -1.453281
2008-10-22 08:11:16 51°20.032 2°36.89 19.0526 0.130199 0.711285 -1.453281
2008-10-22 08:11:21 51°20.038 2°36.88 19.0581 0.130199 0.71131 -1.453281
2008-10-22 08:11:26 51°20.044 2°36.872 19.0629 0.130199 0.711322 -1.453281
2008-10-22 08:11:31 51°20.049 2°36.865 19.0589 0.130199 0.711347 -1.453281
2008-10-22 08:11:37 51°20.055 2°36.858 19.0538 0.130199 0.711347 -1.453281
2008-10-22 08:11:41 51°20.057 2°36.855 19.0623 0.130199 0.711347 -1.453281
2008-10-22 08:11:47 51°20.061 2°36.852 19.0605 0.130199 0.711359 -1.453281
2008-10-22 08:11:51 51°20.063 2°36.851 19.0297 0.130199 0.711359 -1.453281
2008-10-22 08:11:56 51°20.065 2°36.852 19.052 0.130199 0.711347 -1.453281
2008-10-22 08:12:01 51°20.066 2°36.853 19.0582 0.130199 0.711372 -1.453281
2008-10-22 08:12:06 51°20.067 2°36.855 19.0532 0.130199 0.711372 -1.453281
2008-10-22 08:12:12 51°20.068 2°36.858 19.0556 0.130199 0.711384 -1.453281
2008-10-22 08:12:17 51°20.068 2°36.86 19.0518 0.130199 0.711396 -1.453281
2008-10-22 08:12:21 51°20.069 2°36.861 19.0704 0.130199 0.711409 -1.453281
2008-10-22 08:12:27 51°20.07 2°36.864 19.0637 0.130199 0.711433 -1.453281
2008-10-22 08:12:33 51°20.07 2°36.866 19.0722 0.130199 0.711458 -1.453281
2008-10-22 08:12:38 51°20.071 2°36.868 19.0846 0.130199 0.711458 -1.453281
2008-10-22 08:12:44 51°20.073 2°36.87 19.0736 0.130199 0.711471 -1.453281
2008-10-22 08:12:49 51°20.074 2°36.872 19.0767 0.130199 0.711495 -1.453281
2008-10-22 08:12:54 51°20.075 2°36.874 19.0705 0.130199 0.71152 -1.453281
2008-10-22 08:13:00 51°20.077 2°36.876 19.0713 0.130199 0.711545 -1.453281
2008-10-22 08:13:05 51°20.078 2°36.878 19.0833 0.130199 0.711557 -1.453281
2008-10-22 08:13:10 51°20.079 2°36.88 19.0782 0.130199 0.711557 -1.453281
2008-10-22 08:13:14 51°20.08 2°36.881 19.0529 0.130199 0.71157 -1.453281
2008-10-22 08:13:20 51°20.082 2°36.884 19.067 0.130199 0.711582 -1.453281
2008-10-22 08:13:25 51°20.083 2°36.885 19.0593 0.130199 0.711594 -1.453281
2008-10-22 08:13:30 51°20.084 2°36.888 19.068 0.130199 0.711607 -1.453281
2008-10-22 08:13:34 51°20.085 2°36.889 19.0869 0.130199 0.711619 -1.453281
2008-10-22 08:13:39 51°20.086 2°36.891 19.0519 0.130199 0.711619 -1.453281
2008-10-22 08:13:44 51°20.088 2°36.893 19.0543 0.130199 0.711631 -1.453281
2008-10-22 08:13:49 51°20.089 2°36.895 19.0371 0.130199 0.711631 -1.453281
2008-10-22 08:13:54 51°20.09 2°36.897 19.0756 0.130199 0.711644 -1.453281
2008-10-22 08:13:59 51°20.091 2°36.899 19.0448 0.130199 0.711656 -1.453281
2008-10-22 08:14:03 51°20.092 2°36.901 19.0745 0.130199 0.711669 -1.453281
2008-10-22 08:14:09 51°20.094 2°36.904 19.0817 0.130199 0.711669 -1.453281
2008-10-22 08:14:13 51°20.095 2°36.906 19.0789 0.130199 0.711681 -1.453281
2008-10-22 08:14:18 51°20.096 2°36.909 19.0706 0.130199 0.711681 -1.453281
2008-10-22 08:14:23 51°20.098 2°36.911 19.0813 0.130199 0.711693 -1.453281
2008-10-22 08:14:28 51°20.099 2°36.913 19.049 0.130199 0.711706 -1.453281
2008-10-22 08:14:33 51°20.1 2°36.916 19.054 0.130199 0.711718 -1.453281
2008-10-22 08:14:37 51°20.101 2°36.918 19.0766 0.130199 0.711718 -1.453281
2008-10-22 08:14:42 51°20.102 2°36.92 19.0761 0.130199 0.711731 -1.453281
2008-10-22 08:14:47 51°20.103 2°36.922 19.0475 0.130199 0.711731 -1.453281
2008-10-22 08:14:52 51°20.105 2°36.924 19.0798 0.130199 0.711755 -1.453281
2008-10-22 08:14:57 51°20.106 2°36.927 19.0842 0.130199 0.711768 -1.453281
2008-10-22 08:15:01 51°20.107 2°36.928 19.0852 0.130199 0.71178 -1.453281
2008-10-22 08:15:06 51°20.108 2°36.93 19.0649 0.130199 0.71178 -1.453281
2008-10-22 08:15:11 51°20.109 2°36.932 19.0702 0.130199 0.711805 -1.453281
2008-10-22 08:15:17 51°20.11 2°36.935 19.078 0.130199 0.711805 -1.453281
2008-10-22 08:15:21 51°20.111 2°36.937 19.0532 0.130199 0.71183 -1.453281
2008-10-22 08:15:26 51°20.112 2°36.939 19.0638 0.130096 0.711242 -1.453281
2008-10-22 08:15:31 51°20.113 2°36.941 19.082 0.130096 0.711254 -1.453281
2008-10-22 08:15:37 51°20.115 2°36.944 19.0832 0.130096 0.711254 -1.453281
2008-10-22 08:15:41 51°20.116 2°36.946 19.0877 0.130096 0.711267 -1.453281
2008-10-22 08:15:46 51°20.117 2°36.948 19.0571 0.130096 0.711292 -1.453281
2008-10-22 08:15:51 51°20.118 2°36.95 19.0422 0.130096 0.711304 -1.453281
2008-10-22 08:15:56 51°20.119 2°36.953 19.0781 0.130096 0.711316 -1.453281
2008-10-22 08:16:01 51°20.12 2°36.955 19.0846 0.130096 0.711329 -1.453281
2008-10-22 08:16:06 51°20.121 2°36.957 19.0619 0.130096 0.711329 -1.453281
2008-10-22 08:16:11 51°20.122 2°36.96 19.0613 0.130096 0.711341 -1.453281
2008-10-22 08:16:16 51°20.123 2°36.962 19.0732 0.130096 0.711353 -1.418457
2008-10-22 08:16:21 51°20.124 2°36.964 19.0814 0.130096 0.711366 -1.453281
2008-10-22 08:16:27 51°20.125 2°36.968 19.076 0.130096 0.711378 -1.453281
2008-10-22 08:16:31 51°20.126 2°36.969 19.0771 0.130096 0.711391 -1.453281
2008-10-22 08:16:36 51°20.127 2°36.972 19.0633 0.130096 0.711391 -1.453281
2008-10-22 08:16:41 51°20.128 2°36.975 19.0892 0.130096 0.711403 -1.453281
2008-10-22 08:16:46 51°20.129 2°36.977 19.0928 0.130096 0.711415 -1.453281
2008-10-22 08:16:51 51°20.13 2°36.98 19.0875 0.130096 0.711428 -1.453281
2008-10-22 08:16:57 51°20.131 2°36.983 19.0789 0.130096 0.711453 -1.453281
2008-10-22 08:17:01 51°20.132 2°36.985 19.0806 0.130096 0.711453 -1.453281
2008-10-22 08:17:06 51°20.133 2°36.987 19.0951 0.130096 0.711453 -1.453281
2008-10-22 08:17:11 51°20.134 2°36.99 19.0763 0.130096 0.711477 -1.453281
2008-10-22 08:17:17 51°20.135 2°36.993 19.076 0.130096 0.711477 -1.453281
2008-10-22 08:17:21 51°20.136 2°36.996 19.1022 0.130096 0.711502 -1.453281
2008-10-22 08:17:26 51°20.137 2°36.998 19.0886 0.130096 0.711515 -1.453281